<?xml version="1.0" encoding="UTF-8" standalone="no" ?>
<gpx xmlns="http://www.topografix.com/GPX/1/1" xmlns:xsi="http://www.w3.org/2001/XMLSchema-instance" xsi:schemaLocation="http://www.topografix.com/GPX/1/1 http://www.topografix.com/GPX/1/1/gpx.xsd" version="1.1" creator="VisuGPX - https://www.visugpx.com">
  <metadata>
    <name>Coupe régionale XC les Fumades - Minimes</name>
    <desc><![CDATA[Coupe régionale XC les Fumades - Minimes]]></desc>
  </metadata>
  <trk>
    <name><![CDATA[Minimes on GPSies.com]]></name>
    <trkseg>
      <trkpt lat="44.18781" lon="4.22988">
        <ele>147</ele>
        <time>2010-01-01T00:00:00Z</time>
      </trkpt>
      <trkpt lat="44.18796" lon="4.23009">
        <ele>147</ele>
        <time>2010-01-01T00:00:08Z</time>
      </trkpt>
      <trkpt lat="44.18804" lon="4.2303">
        <ele>148</ele>
        <time>2010-01-01T00:00:15Z</time>
      </trkpt>
      <trkpt lat="44.18815" lon="4.23045">
        <ele>148</ele>
        <time>2010-01-01T00:00:21Z</time>
      </trkpt>
      <trkpt lat="44.18821" lon="4.23032">
        <ele>149</ele>
        <time>2010-01-01T00:00:25Z</time>
      </trkpt>
      <trkpt lat="44.18819" lon="4.23017">
        <ele>149</ele>
        <time>2010-01-01T00:00:30Z</time>
      </trkpt>
      <trkpt lat="44.18819" lon="4.23001">
        <ele>150</ele>
        <time>2010-01-01T00:00:34Z</time>
      </trkpt>
      <trkpt lat="44.18817" lon="4.22984">
        <ele>150</ele>
        <time>2010-01-01T00:00:39Z</time>
      </trkpt>
      <trkpt lat="44.18818" lon="4.22966">
        <ele>150</ele>
        <time>2010-01-01T00:00:45Z</time>
      </trkpt>
      <trkpt lat="44.1882" lon="4.22943">
        <ele>151</ele>
        <time>2010-01-01T00:00:51Z</time>
      </trkpt>
      <trkpt lat="44.18822" lon="4.22922">
        <ele>152</ele>
        <time>2010-01-01T00:00:57Z</time>
      </trkpt>
      <trkpt lat="44.18823" lon="4.22901">
        <ele>154</ele>
        <time>2010-01-01T00:01:03Z</time>
      </trkpt>
      <trkpt lat="44.18821" lon="4.2288">
        <ele>154</ele>
        <time>2010-01-01T00:01:09Z</time>
      </trkpt>
      <trkpt lat="44.18817" lon="4.22861">
        <ele>155</ele>
        <time>2010-01-01T00:01:15Z</time>
      </trkpt>
      <trkpt lat="44.18814" lon="4.22842">
        <ele>156</ele>
        <time>2010-01-01T00:01:21Z</time>
      </trkpt>
      <trkpt lat="44.18809" lon="4.22823">
        <ele>160</ele>
        <time>2010-01-01T00:01:27Z</time>
      </trkpt>
      <trkpt lat="44.18805" lon="4.22806">
        <ele>159</ele>
        <time>2010-01-01T00:01:32Z</time>
      </trkpt>
      <trkpt lat="44.18801" lon="4.22791">
        <ele>160</ele>
        <time>2010-01-01T00:01:36Z</time>
      </trkpt>
      <trkpt lat="44.18796" lon="4.22774">
        <ele>160</ele>
        <time>2010-01-01T00:01:41Z</time>
      </trkpt>
      <trkpt lat="44.18791" lon="4.22755">
        <ele>160</ele>
        <time>2010-01-01T00:01:47Z</time>
      </trkpt>
      <trkpt lat="44.18785" lon="4.22735">
        <ele>165</ele>
        <time>2010-01-01T00:01:53Z</time>
      </trkpt>
      <trkpt lat="44.18777" lon="4.22715">
        <ele>165</ele>
        <time>2010-01-01T00:02:00Z</time>
      </trkpt>
      <trkpt lat="44.18768" lon="4.22692">
        <ele>166</ele>
        <time>2010-01-01T00:02:07Z</time>
      </trkpt>
      <trkpt lat="44.18757" lon="4.22666">
        <ele>166</ele>
        <time>2010-01-01T00:02:16Z</time>
      </trkpt>
      <trkpt lat="44.18751" lon="4.22638">
        <ele>169</ele>
        <time>2010-01-01T00:02:25Z</time>
      </trkpt>
      <trkpt lat="44.18747" lon="4.22615">
        <ele>165</ele>
        <time>2010-01-01T00:02:32Z</time>
      </trkpt>
      <trkpt lat="44.18743" lon="4.22591">
        <ele>167</ele>
        <time>2010-01-01T00:02:39Z</time>
      </trkpt>
      <trkpt lat="44.18741" lon="4.22568">
        <ele>168</ele>
        <time>2010-01-01T00:02:45Z</time>
      </trkpt>
      <trkpt lat="44.18732" lon="4.22548">
        <ele>168</ele>
        <time>2010-01-01T00:02:52Z</time>
      </trkpt>
      <trkpt lat="44.1871" lon="4.22536">
        <ele>168</ele>
        <time>2010-01-01T00:03:01Z</time>
      </trkpt>
      <trkpt lat="44.18688" lon="4.2252">
        <ele>168</ele>
        <time>2010-01-01T00:03:11Z</time>
      </trkpt>
      <trkpt lat="44.1867" lon="4.225">
        <ele>168</ele>
        <time>2010-01-01T00:03:20Z</time>
      </trkpt>
      <trkpt lat="44.18654" lon="4.22487">
        <ele>169</ele>
        <time>2010-01-01T00:03:28Z</time>
      </trkpt>
      <trkpt lat="44.1864" lon="4.22478">
        <ele>170</ele>
        <time>2010-01-01T00:03:34Z</time>
      </trkpt>
      <trkpt lat="44.18626" lon="4.2247">
        <ele>170</ele>
        <time>2010-01-01T00:03:40Z</time>
      </trkpt>
      <trkpt lat="44.18613" lon="4.22462">
        <ele>170</ele>
        <time>2010-01-01T00:03:46Z</time>
      </trkpt>
      <trkpt lat="44.18599" lon="4.22456">
        <ele>171</ele>
        <time>2010-01-01T00:03:52Z</time>
      </trkpt>
      <trkpt lat="44.18586" lon="4.22453">
        <ele>171</ele>
        <time>2010-01-01T00:03:57Z</time>
      </trkpt>
      <trkpt lat="44.18574" lon="4.22441">
        <ele>175</ele>
        <time>2010-01-01T00:04:03Z</time>
      </trkpt>
      <trkpt lat="44.18561" lon="4.22426">
        <ele>175</ele>
        <time>2010-01-01T00:04:10Z</time>
      </trkpt>
      <trkpt lat="44.18549" lon="4.22415">
        <ele>175</ele>
        <time>2010-01-01T00:04:16Z</time>
      </trkpt>
      <trkpt lat="44.18537" lon="4.22402">
        <ele>176</ele>
        <time>2010-01-01T00:04:21Z</time>
      </trkpt>
      <trkpt lat="44.18524" lon="4.2239">
        <ele>176</ele>
        <time>2010-01-01T00:04:28Z</time>
      </trkpt>
      <trkpt lat="44.18511" lon="4.22376">
        <ele>176</ele>
        <time>2010-01-01T00:04:35Z</time>
      </trkpt>
      <trkpt lat="44.18497" lon="4.22353">
        <ele>179</ele>
        <time>2010-01-01T00:04:43Z</time>
      </trkpt>
      <trkpt lat="44.18485" lon="4.22324">
        <ele>178</ele>
        <time>2010-01-01T00:04:52Z</time>
      </trkpt>
      <trkpt lat="44.1847" lon="4.22289">
        <ele>179</ele>
        <time>2010-01-01T00:05:04Z</time>
      </trkpt>
      <trkpt lat="44.18454" lon="4.22247">
        <ele>176</ele>
        <time>2010-01-01T00:05:18Z</time>
      </trkpt>
      <trkpt lat="44.18431" lon="4.22219">
        <ele>177</ele>
        <time>2010-01-01T00:05:30Z</time>
      </trkpt>
      <trkpt lat="44.18413" lon="4.22191">
        <ele>181</ele>
        <time>2010-01-01T00:05:41Z</time>
      </trkpt>
      <trkpt lat="44.18395" lon="4.22169">
        <ele>181</ele>
        <time>2010-01-01T00:05:51Z</time>
      </trkpt>
      <trkpt lat="44.18378" lon="4.22159">
        <ele>179</ele>
        <time>2010-01-01T00:05:58Z</time>
      </trkpt>
      <trkpt lat="44.18362" lon="4.22152">
        <ele>180</ele>
        <time>2010-01-01T00:06:05Z</time>
      </trkpt>
      <trkpt lat="44.18349" lon="4.22147">
        <ele>181</ele>
        <time>2010-01-01T00:06:10Z</time>
      </trkpt>
      <trkpt lat="44.18335" lon="4.22141">
        <ele>181</ele>
        <time>2010-01-01T00:06:16Z</time>
      </trkpt>
      <trkpt lat="44.18321" lon="4.22136">
        <ele>185</ele>
        <time>2010-01-01T00:06:22Z</time>
      </trkpt>
      <trkpt lat="44.18305" lon="4.22131">
        <ele>186</ele>
        <time>2010-01-01T00:06:28Z</time>
      </trkpt>
      <trkpt lat="44.18291" lon="4.22125">
        <ele>186</ele>
        <time>2010-01-01T00:06:34Z</time>
      </trkpt>
      <trkpt lat="44.18277" lon="4.22118">
        <ele>187</ele>
        <time>2010-01-01T00:06:40Z</time>
      </trkpt>
      <trkpt lat="44.18262" lon="4.22109">
        <ele>187</ele>
        <time>2010-01-01T00:06:47Z</time>
      </trkpt>
      <trkpt lat="44.18246" lon="4.221">
        <ele>191</ele>
        <time>2010-01-01T00:06:53Z</time>
      </trkpt>
      <trkpt lat="44.18231" lon="4.2209">
        <ele>192</ele>
        <time>2010-01-01T00:07:00Z</time>
      </trkpt>
      <trkpt lat="44.18215" lon="4.2208">
        <ele>190</ele>
        <time>2010-01-01T00:07:07Z</time>
      </trkpt>
      <trkpt lat="44.182" lon="4.22068">
        <ele>191</ele>
        <time>2010-01-01T00:07:14Z</time>
      </trkpt>
      <trkpt lat="44.18185" lon="4.22057">
        <ele>192</ele>
        <time>2010-01-01T00:07:21Z</time>
      </trkpt>
      <trkpt lat="44.18169" lon="4.22047">
        <ele>192</ele>
        <time>2010-01-01T00:07:28Z</time>
      </trkpt>
      <trkpt lat="44.18152" lon="4.22034">
        <ele>196</ele>
        <time>2010-01-01T00:07:36Z</time>
      </trkpt>
      <trkpt lat="44.18137" lon="4.22022">
        <ele>197</ele>
        <time>2010-01-01T00:07:43Z</time>
      </trkpt>
      <trkpt lat="44.18123" lon="4.22027">
        <ele>197</ele>
        <time>2010-01-01T00:07:49Z</time>
      </trkpt>
      <trkpt lat="44.1811" lon="4.22038">
        <ele>198</ele>
        <time>2010-01-01T00:07:54Z</time>
      </trkpt>
      <trkpt lat="44.18098" lon="4.2205">
        <ele>198</ele>
        <time>2010-01-01T00:08:00Z</time>
      </trkpt>
      <trkpt lat="44.18083" lon="4.22055">
        <ele>198</ele>
        <time>2010-01-01T00:08:07Z</time>
      </trkpt>
      <trkpt lat="44.1807" lon="4.22037">
        <ele>197</ele>
        <time>2010-01-01T00:08:14Z</time>
      </trkpt>
      <trkpt lat="44.18058" lon="4.22016">
        <ele>198</ele>
        <time>2010-01-01T00:08:22Z</time>
      </trkpt>
      <trkpt lat="44.18048" lon="4.21999">
        <ele>198</ele>
        <time>2010-01-01T00:08:28Z</time>
      </trkpt>
      <trkpt lat="44.18034" lon="4.21981">
        <ele>198</ele>
        <time>2010-01-01T00:08:36Z</time>
      </trkpt>
      <trkpt lat="44.18021" lon="4.21954">
        <ele>198</ele>
        <time>2010-01-01T00:08:45Z</time>
      </trkpt>
      <trkpt lat="44.18014" lon="4.21922">
        <ele>197</ele>
        <time>2010-01-01T00:08:55Z</time>
      </trkpt>
      <trkpt lat="44.18004" lon="4.2189">
        <ele>196</ele>
        <time>2010-01-01T00:09:05Z</time>
      </trkpt>
      <trkpt lat="44.1799" lon="4.21854">
        <ele>194</ele>
        <time>2010-01-01T00:09:16Z</time>
      </trkpt>
      <trkpt lat="44.17969" lon="4.21816">
        <ele>193</ele>
        <time>2010-01-01T00:09:30Z</time>
      </trkpt>
      <trkpt lat="44.17947" lon="4.21777">
        <ele>193</ele>
        <time>2010-01-01T00:09:44Z</time>
      </trkpt>
      <trkpt lat="44.17929" lon="4.21744">
        <ele>193</ele>
        <time>2010-01-01T00:09:56Z</time>
      </trkpt>
      <trkpt lat="44.17916" lon="4.21719">
        <ele>195</ele>
        <time>2010-01-01T00:10:05Z</time>
      </trkpt>
      <trkpt lat="44.17903" lon="4.21695">
        <ele>194</ele>
        <time>2010-01-01T00:10:14Z</time>
      </trkpt>
      <trkpt lat="44.17886" lon="4.21669">
        <ele>194</ele>
        <time>2010-01-01T00:10:24Z</time>
      </trkpt>
      <trkpt lat="44.17869" lon="4.21651">
        <ele>196</ele>
        <time>2010-01-01T00:10:32Z</time>
      </trkpt>
      <trkpt lat="44.17858" lon="4.21639">
        <ele>196</ele>
        <time>2010-01-01T00:10:38Z</time>
      </trkpt>
      <trkpt lat="44.17849" lon="4.21624">
        <ele>196</ele>
        <time>2010-01-01T00:10:44Z</time>
      </trkpt>
      <trkpt lat="44.1784" lon="4.21611">
        <ele>197</ele>
        <time>2010-01-01T00:10:49Z</time>
      </trkpt>
      <trkpt lat="44.17827" lon="4.21603">
        <ele>199</ele>
        <time>2010-01-01T00:10:55Z</time>
      </trkpt>
      <trkpt lat="44.17816" lon="4.2159">
        <ele>199</ele>
        <time>2010-01-01T00:11:00Z</time>
      </trkpt>
      <trkpt lat="44.1781" lon="4.2157">
        <ele>201</ele>
        <time>2010-01-01T00:11:06Z</time>
      </trkpt>
      <trkpt lat="44.17822" lon="4.21555">
        <ele>201</ele>
        <time>2010-01-01T00:11:13Z</time>
      </trkpt>
      <trkpt lat="44.17836" lon="4.21542">
        <ele>199</ele>
        <time>2010-01-01T00:11:20Z</time>
      </trkpt>
      <trkpt lat="44.17848" lon="4.2153">
        <ele>199</ele>
        <time>2010-01-01T00:11:26Z</time>
      </trkpt>
      <trkpt lat="44.1786" lon="4.21517">
        <ele>200</ele>
        <time>2010-01-01T00:11:32Z</time>
      </trkpt>
      <trkpt lat="44.17874" lon="4.21504">
        <ele>200</ele>
        <time>2010-01-01T00:11:38Z</time>
      </trkpt>
      <trkpt lat="44.17891" lon="4.2149">
        <ele>201</ele>
        <time>2010-01-01T00:11:46Z</time>
      </trkpt>
      <trkpt lat="44.17907" lon="4.21476">
        <ele>200</ele>
        <time>2010-01-01T00:11:54Z</time>
      </trkpt>
      <trkpt lat="44.17925" lon="4.2147">
        <ele>199</ele>
        <time>2010-01-01T00:12:01Z</time>
      </trkpt>
      <trkpt lat="44.17939" lon="4.21455">
        <ele>198</ele>
        <time>2010-01-01T00:12:08Z</time>
      </trkpt>
      <trkpt lat="44.17953" lon="4.2144">
        <ele>197</ele>
        <time>2010-01-01T00:12:15Z</time>
      </trkpt>
      <trkpt lat="44.17971" lon="4.21444">
        <ele>197</ele>
        <time>2010-01-01T00:12:23Z</time>
      </trkpt>
      <trkpt lat="44.17986" lon="4.21442">
        <ele>196</ele>
        <time>2010-01-01T00:12:29Z</time>
      </trkpt>
      <trkpt lat="44.18" lon="4.21421">
        <ele>194</ele>
        <time>2010-01-01T00:12:37Z</time>
      </trkpt>
      <trkpt lat="44.18008" lon="4.214">
        <ele>191</ele>
        <time>2010-01-01T00:12:44Z</time>
      </trkpt>
      <trkpt lat="44.18023" lon="4.2139">
        <ele>189</ele>
        <time>2010-01-01T00:12:50Z</time>
      </trkpt>
      <trkpt lat="44.18038" lon="4.21391">
        <ele>188</ele>
        <time>2010-01-01T00:12:56Z</time>
      </trkpt>
      <trkpt lat="44.18046" lon="4.21402">
        <ele>188</ele>
        <time>2010-01-01T00:13:01Z</time>
      </trkpt>
      <trkpt lat="44.18056" lon="4.21396">
        <ele>188</ele>
        <time>2010-01-01T00:13:05Z</time>
      </trkpt>
      <trkpt lat="44.18056" lon="4.21379">
        <ele>187</ele>
        <time>2010-01-01T00:13:10Z</time>
      </trkpt>
      <trkpt lat="44.18049" lon="4.21365">
        <ele>187</ele>
        <time>2010-01-01T00:13:15Z</time>
      </trkpt>
      <trkpt lat="44.18037" lon="4.21346">
        <ele>187</ele>
        <time>2010-01-01T00:13:22Z</time>
      </trkpt>
      <trkpt lat="44.18023" lon="4.21328">
        <ele>184</ele>
        <time>2010-01-01T00:13:30Z</time>
      </trkpt>
      <trkpt lat="44.18028" lon="4.21303">
        <ele>183</ele>
        <time>2010-01-01T00:13:37Z</time>
      </trkpt>
      <trkpt lat="44.18034" lon="4.21271">
        <ele>182</ele>
        <time>2010-01-01T00:13:47Z</time>
      </trkpt>
      <trkpt lat="44.18043" lon="4.2125">
        <ele>181</ele>
        <time>2010-01-01T00:13:54Z</time>
      </trkpt>
      <trkpt lat="44.18037" lon="4.21237">
        <ele>179</ele>
        <time>2010-01-01T00:13:58Z</time>
      </trkpt>
      <trkpt lat="44.18034" lon="4.21227">
        <ele>179</ele>
        <time>2010-01-01T00:14:01Z</time>
      </trkpt>
      <trkpt lat="44.18026" lon="4.21226">
        <ele>179</ele>
        <time>2010-01-01T00:14:04Z</time>
      </trkpt>
      <trkpt lat="44.18019" lon="4.21231">
        <ele>180</ele>
        <time>2010-01-01T00:14:08Z</time>
      </trkpt>
      <trkpt lat="44.18013" lon="4.21242">
        <ele>181</ele>
        <time>2010-01-01T00:14:11Z</time>
      </trkpt>
      <trkpt lat="44.18006" lon="4.21251">
        <ele>183</ele>
        <time>2010-01-01T00:14:15Z</time>
      </trkpt>
      <trkpt lat="44.17996" lon="4.2125">
        <ele>183</ele>
        <time>2010-01-01T00:14:19Z</time>
      </trkpt>
      <trkpt lat="44.17989" lon="4.21242">
        <ele>184</ele>
        <time>2010-01-01T00:14:23Z</time>
      </trkpt>
      <trkpt lat="44.17987" lon="4.2123">
        <ele>185</ele>
        <time>2010-01-01T00:14:26Z</time>
      </trkpt>
      <trkpt lat="44.17981" lon="4.21217">
        <ele>185</ele>
        <time>2010-01-01T00:14:31Z</time>
      </trkpt>
      <trkpt lat="44.17976" lon="4.21205">
        <ele>185</ele>
        <time>2010-01-01T00:14:35Z</time>
      </trkpt>
      <trkpt lat="44.17966" lon="4.21199">
        <ele>186</ele>
        <time>2010-01-01T00:14:39Z</time>
      </trkpt>
      <trkpt lat="44.17957" lon="4.21195">
        <ele>186</ele>
        <time>2010-01-01T00:14:43Z</time>
      </trkpt>
      <trkpt lat="44.17947" lon="4.21193">
        <ele>187</ele>
        <time>2010-01-01T00:14:47Z</time>
      </trkpt>
      <trkpt lat="44.17939" lon="4.21188">
        <ele>187</ele>
        <time>2010-01-01T00:14:51Z</time>
      </trkpt>
      <trkpt lat="44.17934" lon="4.21177">
        <ele>188</ele>
        <time>2010-01-01T00:14:54Z</time>
      </trkpt>
      <trkpt lat="44.17926" lon="4.21166">
        <ele>189</ele>
        <time>2010-01-01T00:14:59Z</time>
      </trkpt>
      <trkpt lat="44.17916" lon="4.21156">
        <ele>191</ele>
        <time>2010-01-01T00:15:04Z</time>
      </trkpt>
      <trkpt lat="44.17904" lon="4.21146">
        <ele>192</ele>
        <time>2010-01-01T00:15:09Z</time>
      </trkpt>
      <trkpt lat="44.1789" lon="4.21139">
        <ele>192</ele>
        <time>2010-01-01T00:15:15Z</time>
      </trkpt>
      <trkpt lat="44.17877" lon="4.21133">
        <ele>193</ele>
        <time>2010-01-01T00:15:21Z</time>
      </trkpt>
      <trkpt lat="44.17861" lon="4.21128">
        <ele>193</ele>
        <time>2010-01-01T00:15:27Z</time>
      </trkpt>
      <trkpt lat="44.17848" lon="4.21131">
        <ele>194</ele>
        <time>2010-01-01T00:15:33Z</time>
      </trkpt>
      <trkpt lat="44.17842" lon="4.21143">
        <ele>195</ele>
        <time>2010-01-01T00:15:37Z</time>
      </trkpt>
      <trkpt lat="44.17837" lon="4.21156">
        <ele>197</ele>
        <time>2010-01-01T00:15:41Z</time>
      </trkpt>
      <trkpt lat="44.17832" lon="4.2117">
        <ele>199</ele>
        <time>2010-01-01T00:15:46Z</time>
      </trkpt>
      <trkpt lat="44.17825" lon="4.21186">
        <ele>200</ele>
        <time>2010-01-01T00:15:51Z</time>
      </trkpt>
      <trkpt lat="44.17816" lon="4.21203">
        <ele>200</ele>
        <time>2010-01-01T00:15:57Z</time>
      </trkpt>
      <trkpt lat="44.17807" lon="4.21223">
        <ele>200</ele>
        <time>2010-01-01T00:16:04Z</time>
      </trkpt>
      <trkpt lat="44.17797" lon="4.21245">
        <ele>200</ele>
        <time>2010-01-01T00:16:11Z</time>
      </trkpt>
      <trkpt lat="44.17788" lon="4.21266">
        <ele>199</ele>
        <time>2010-01-01T00:16:18Z</time>
      </trkpt>
      <trkpt lat="44.1778" lon="4.21285">
        <ele>199</ele>
        <time>2010-01-01T00:16:25Z</time>
      </trkpt>
      <trkpt lat="44.1777" lon="4.21306">
        <ele>199</ele>
        <time>2010-01-01T00:16:32Z</time>
      </trkpt>
      <trkpt lat="44.17768" lon="4.2133">
        <ele>199</ele>
        <time>2010-01-01T00:16:39Z</time>
      </trkpt>
      <trkpt lat="44.17774" lon="4.21354">
        <ele>199</ele>
        <time>2010-01-01T00:16:46Z</time>
      </trkpt>
      <trkpt lat="44.17777" lon="4.21387">
        <ele>199</ele>
        <time>2010-01-01T00:16:56Z</time>
      </trkpt>
      <trkpt lat="44.17773" lon="4.21421">
        <ele>201</ele>
        <time>2010-01-01T00:17:05Z</time>
      </trkpt>
      <trkpt lat="44.17771" lon="4.21452">
        <ele>201</ele>
        <time>2010-01-01T00:17:15Z</time>
      </trkpt>
      <trkpt lat="44.17766" lon="4.21476">
        <ele>202</ele>
        <time>2010-01-01T00:17:22Z</time>
      </trkpt>
      <trkpt lat="44.17754" lon="4.21462">
        <ele>202</ele>
        <time>2010-01-01T00:17:28Z</time>
      </trkpt>
      <trkpt lat="44.17744" lon="4.21441">
        <ele>201</ele>
        <time>2010-01-01T00:17:35Z</time>
      </trkpt>
      <trkpt lat="44.17732" lon="4.21418">
        <ele>201</ele>
        <time>2010-01-01T00:17:43Z</time>
      </trkpt>
      <trkpt lat="44.17718" lon="4.21394">
        <ele>200</ele>
        <time>2010-01-01T00:17:52Z</time>
      </trkpt>
      <trkpt lat="44.17704" lon="4.21383">
        <ele>199</ele>
        <time>2010-01-01T00:17:59Z</time>
      </trkpt>
      <trkpt lat="44.17695" lon="4.21389">
        <ele>199</ele>
        <time>2010-01-01T00:18:03Z</time>
      </trkpt>
      <trkpt lat="44.17687" lon="4.21393">
        <ele>199</ele>
        <time>2010-01-01T00:18:06Z</time>
      </trkpt>
      <trkpt lat="44.17671" lon="4.21404">
        <ele>199</ele>
        <time>2010-01-01T00:18:13Z</time>
      </trkpt>
      <trkpt lat="44.17658" lon="4.21424">
        <ele>195</ele>
        <time>2010-01-01T00:18:21Z</time>
      </trkpt>
      <trkpt lat="44.17646" lon="4.21443">
        <ele>192</ele>
        <time>2010-01-01T00:18:28Z</time>
      </trkpt>
      <trkpt lat="44.17639" lon="4.21462">
        <ele>192</ele>
        <time>2010-01-01T00:18:34Z</time>
      </trkpt>
      <trkpt lat="44.17638" lon="4.21476">
        <ele>192</ele>
        <time>2010-01-01T00:18:38Z</time>
      </trkpt>
      <trkpt lat="44.17638" lon="4.21496">
        <ele>193</ele>
        <time>2010-01-01T00:18:44Z</time>
      </trkpt>
      <trkpt lat="44.17651" lon="4.21512">
        <ele>194</ele>
        <time>2010-01-01T00:18:51Z</time>
      </trkpt>
      <trkpt lat="44.17664" lon="4.21525">
        <ele>193</ele>
        <time>2010-01-01T00:18:57Z</time>
      </trkpt>
      <trkpt lat="44.17674" lon="4.21532">
        <ele>201</ele>
        <time>2010-01-01T00:19:02Z</time>
      </trkpt>
      <trkpt lat="44.17681" lon="4.21534">
        <ele>201</ele>
        <time>2010-01-01T00:19:05Z</time>
      </trkpt>
      <trkpt lat="44.17692" lon="4.21543">
        <ele>201</ele>
        <time>2010-01-01T00:19:10Z</time>
      </trkpt>
      <trkpt lat="44.17701" lon="4.21559">
        <ele>201</ele>
        <time>2010-01-01T00:19:15Z</time>
      </trkpt>
      <trkpt lat="44.1771" lon="4.21575">
        <ele>201</ele>
        <time>2010-01-01T00:19:21Z</time>
      </trkpt>
      <trkpt lat="44.17713" lon="4.21591">
        <ele>197</ele>
        <time>2010-01-01T00:19:26Z</time>
      </trkpt>
      <trkpt lat="44.17721" lon="4.2161">
        <ele>197</ele>
        <time>2010-01-01T00:19:33Z</time>
      </trkpt>
      <trkpt lat="44.17738" lon="4.21627">
        <ele>197</ele>
        <time>2010-01-01T00:19:41Z</time>
      </trkpt>
      <trkpt lat="44.17748" lon="4.21655">
        <ele>198</ele>
        <time>2010-01-01T00:19:50Z</time>
      </trkpt>
      <trkpt lat="44.17755" lon="4.21683">
        <ele>198</ele>
        <time>2010-01-01T00:19:58Z</time>
      </trkpt>
      <trkpt lat="44.17773" lon="4.21703">
        <ele>196</ele>
        <time>2010-01-01T00:20:07Z</time>
      </trkpt>
      <trkpt lat="44.17789" lon="4.21721">
        <ele>195</ele>
        <time>2010-01-01T00:20:16Z</time>
      </trkpt>
      <trkpt lat="44.17802" lon="4.21729">
        <ele>195</ele>
        <time>2010-01-01T00:20:21Z</time>
      </trkpt>
      <trkpt lat="44.17813" lon="4.21735">
        <ele>196</ele>
        <time>2010-01-01T00:20:26Z</time>
      </trkpt>
      <trkpt lat="44.17828" lon="4.21744">
        <ele>197</ele>
        <time>2010-01-01T00:20:33Z</time>
      </trkpt>
      <trkpt lat="44.17843" lon="4.2176">
        <ele>195</ele>
        <time>2010-01-01T00:20:40Z</time>
      </trkpt>
      <trkpt lat="44.17856" lon="4.21777">
        <ele>194</ele>
        <time>2010-01-01T00:20:47Z</time>
      </trkpt>
      <trkpt lat="44.17867" lon="4.21798">
        <ele>193</ele>
        <time>2010-01-01T00:20:55Z</time>
      </trkpt>
      <trkpt lat="44.17867" lon="4.21811">
        <ele>193</ele>
        <time>2010-01-01T00:20:59Z</time>
      </trkpt>
      <trkpt lat="44.17873" lon="4.21826">
        <ele>192</ele>
        <time>2010-01-01T00:21:03Z</time>
      </trkpt>
      <trkpt lat="44.17884" lon="4.2183">
        <ele>193</ele>
        <time>2010-01-01T00:21:08Z</time>
      </trkpt>
      <trkpt lat="44.17897" lon="4.21848">
        <ele>189</ele>
        <time>2010-01-01T00:21:15Z</time>
      </trkpt>
      <trkpt lat="44.1792" lon="4.21868">
        <ele>194</ele>
        <time>2010-01-01T00:21:26Z</time>
      </trkpt>
      <trkpt lat="44.17933" lon="4.21901">
        <ele>192</ele>
        <time>2010-01-01T00:21:37Z</time>
      </trkpt>
      <trkpt lat="44.17934" lon="4.21926">
        <ele>191</ele>
        <time>2010-01-01T00:21:44Z</time>
      </trkpt>
      <trkpt lat="44.17933" lon="4.21946">
        <ele>191</ele>
        <time>2010-01-01T00:21:50Z</time>
      </trkpt>
      <trkpt lat="44.17936" lon="4.21966">
        <ele>190</ele>
        <time>2010-01-01T00:21:56Z</time>
      </trkpt>
      <trkpt lat="44.17943" lon="4.21985">
        <ele>190</ele>
        <time>2010-01-01T00:22:02Z</time>
      </trkpt>
      <trkpt lat="44.17954" lon="4.22002">
        <ele>187</ele>
        <time>2010-01-01T00:22:09Z</time>
      </trkpt>
      <trkpt lat="44.17961" lon="4.22016">
        <ele>187</ele>
        <time>2010-01-01T00:22:14Z</time>
      </trkpt>
      <trkpt lat="44.17964" lon="4.22031">
        <ele>186</ele>
        <time>2010-01-01T00:22:18Z</time>
      </trkpt>
      <trkpt lat="44.17976" lon="4.22044">
        <ele>187</ele>
        <time>2010-01-01T00:22:24Z</time>
      </trkpt>
      <trkpt lat="44.17982" lon="4.22057">
        <ele>187</ele>
        <time>2010-01-01T00:22:29Z</time>
      </trkpt>
      <trkpt lat="44.17981" lon="4.22069">
        <ele>187</ele>
        <time>2010-01-01T00:22:32Z</time>
      </trkpt>
      <trkpt lat="44.17981" lon="4.22069">
        <ele>187</ele>
        <time>2010-01-01T00:22:32Z</time>
      </trkpt>
      <trkpt lat="44.17981" lon="4.22073">
        <ele>187</ele>
        <time>2010-01-01T00:22:33Z</time>
      </trkpt>
      <trkpt lat="44.17981" lon="4.2208">
        <ele>187</ele>
        <time>2010-01-01T00:22:35Z</time>
      </trkpt>
      <trkpt lat="44.17985" lon="4.22088">
        <ele>182</ele>
        <time>2010-01-01T00:22:38Z</time>
      </trkpt>
      <trkpt lat="44.17991" lon="4.22091">
        <ele>184</ele>
        <time>2010-01-01T00:22:41Z</time>
      </trkpt>
      <trkpt lat="44.18001" lon="4.22092">
        <ele>190</ele>
        <time>2010-01-01T00:22:45Z</time>
      </trkpt>
      <trkpt lat="44.18002" lon="4.22092">
        <ele>190</ele>
        <time>2010-01-01T00:22:45Z</time>
      </trkpt>
      <trkpt lat="44.1801" lon="4.22105">
        <ele>190</ele>
        <time>2010-01-01T00:22:50Z</time>
      </trkpt>
      <trkpt lat="44.18014" lon="4.22116">
        <ele>190</ele>
        <time>2010-01-01T00:22:54Z</time>
      </trkpt>
      <trkpt lat="44.18019" lon="4.22128">
        <ele>189</ele>
        <time>2010-01-01T00:22:58Z</time>
      </trkpt>
      <trkpt lat="44.18026" lon="4.2214">
        <ele>189</ele>
        <time>2010-01-01T00:23:02Z</time>
      </trkpt>
      <trkpt lat="44.18033" lon="4.22152">
        <ele>189</ele>
        <time>2010-01-01T00:23:06Z</time>
      </trkpt>
      <trkpt lat="44.18041" lon="4.22166">
        <ele>190</ele>
        <time>2010-01-01T00:23:12Z</time>
      </trkpt>
      <trkpt lat="44.18049" lon="4.22183">
        <ele>184</ele>
        <time>2010-01-01T00:23:17Z</time>
      </trkpt>
      <trkpt lat="44.18062" lon="4.22196">
        <ele>185</ele>
        <time>2010-01-01T00:23:24Z</time>
      </trkpt>
      <trkpt lat="44.18075" lon="4.22213">
        <ele>184</ele>
        <time>2010-01-01T00:23:31Z</time>
      </trkpt>
      <trkpt lat="44.18086" lon="4.2223">
        <ele>190</ele>
        <time>2010-01-01T00:23:37Z</time>
      </trkpt>
      <trkpt lat="44.181" lon="4.22256">
        <ele>184</ele>
        <time>2010-01-01T00:23:47Z</time>
      </trkpt>
      <trkpt lat="44.18118" lon="4.22268">
        <ele>183</ele>
        <time>2010-01-01T00:23:55Z</time>
      </trkpt>
      <trkpt lat="44.18137" lon="4.22291">
        <ele>183</ele>
        <time>2010-01-01T00:24:05Z</time>
      </trkpt>
      <trkpt lat="44.18161" lon="4.22324">
        <ele>181</ele>
        <time>2010-01-01T00:24:18Z</time>
      </trkpt>
      <trkpt lat="44.18183" lon="4.22365">
        <ele>175</ele>
        <time>2010-01-01T00:24:33Z</time>
      </trkpt>
      <trkpt lat="44.18193" lon="4.22397">
        <ele>172</ele>
        <time>2010-01-01T00:24:43Z</time>
      </trkpt>
      <trkpt lat="44.18183" lon="4.22419">
        <ele>164</ele>
        <time>2010-01-01T00:24:51Z</time>
      </trkpt>
      <trkpt lat="44.18161" lon="4.2243">
        <ele>159</ele>
        <time>2010-01-01T00:25:00Z</time>
      </trkpt>
      <trkpt lat="44.18139" lon="4.22442">
        <ele>155</ele>
        <time>2010-01-01T00:25:10Z</time>
      </trkpt>
      <trkpt lat="44.18121" lon="4.22458">
        <ele>152</ele>
        <time>2010-01-01T00:25:18Z</time>
      </trkpt>
      <trkpt lat="44.18096" lon="4.22457">
        <ele>151</ele>
        <time>2010-01-01T00:25:28Z</time>
      </trkpt>
      <trkpt lat="44.18078" lon="4.22446">
        <ele>145</ele>
        <time>2010-01-01T00:25:36Z</time>
      </trkpt>
      <trkpt lat="44.18068" lon="4.22456">
        <ele>144</ele>
        <time>2010-01-01T00:25:41Z</time>
      </trkpt>
      <trkpt lat="44.18058" lon="4.22471">
        <ele>142</ele>
        <time>2010-01-01T00:25:47Z</time>
      </trkpt>
      <trkpt lat="44.18041" lon="4.22495">
        <ele>140</ele>
        <time>2010-01-01T00:25:56Z</time>
      </trkpt>
      <trkpt lat="44.1802" lon="4.22527">
        <ele>135</ele>
        <time>2010-01-01T00:26:09Z</time>
      </trkpt>
      <trkpt lat="44.18" lon="4.2256">
        <ele>133</ele>
        <time>2010-01-01T00:26:21Z</time>
      </trkpt>
      <trkpt lat="44.1798" lon="4.22593">
        <ele>132</ele>
        <time>2010-01-01T00:26:34Z</time>
      </trkpt>
      <trkpt lat="44.17962" lon="4.22622">
        <ele>132</ele>
        <time>2010-01-01T00:26:45Z</time>
      </trkpt>
      <trkpt lat="44.17945" lon="4.2265">
        <ele>132</ele>
        <time>2010-01-01T00:26:55Z</time>
      </trkpt>
      <trkpt lat="44.17927" lon="4.22681">
        <ele>132</ele>
        <time>2010-01-01T00:27:07Z</time>
      </trkpt>
      <trkpt lat="44.17911" lon="4.2271">
        <ele>134</ele>
        <time>2010-01-01T00:27:17Z</time>
      </trkpt>
      <trkpt lat="44.17894" lon="4.22739">
        <ele>134</ele>
        <time>2010-01-01T00:27:28Z</time>
      </trkpt>
      <trkpt lat="44.17876" lon="4.22765">
        <ele>135</ele>
        <time>2010-01-01T00:27:38Z</time>
      </trkpt>
      <trkpt lat="44.1786" lon="4.22788">
        <ele>135</ele>
        <time>2010-01-01T00:27:47Z</time>
      </trkpt>
      <trkpt lat="44.17847" lon="4.22795">
        <ele>135</ele>
        <time>2010-01-01T00:27:53Z</time>
      </trkpt>
      <trkpt lat="44.17844" lon="4.2282">
        <ele>135</ele>
        <time>2010-01-01T00:28:00Z</time>
      </trkpt>
      <trkpt lat="44.17841" lon="4.22847">
        <ele>134</ele>
        <time>2010-01-01T00:28:08Z</time>
      </trkpt>
      <trkpt lat="44.17839" lon="4.22879">
        <ele>134</ele>
        <time>2010-01-01T00:28:17Z</time>
      </trkpt>
      <trkpt lat="44.17838" lon="4.22913">
        <ele>134</ele>
        <time>2010-01-01T00:28:27Z</time>
      </trkpt>
      <trkpt lat="44.17835" lon="4.22948">
        <ele>134</ele>
        <time>2010-01-01T00:28:37Z</time>
      </trkpt>
      <trkpt lat="44.17831" lon="4.22983">
        <ele>135</ele>
        <time>2010-01-01T00:28:47Z</time>
      </trkpt>
      <trkpt lat="44.17829" lon="4.2302">
        <ele>135</ele>
        <time>2010-01-01T00:28:58Z</time>
      </trkpt>
      <trkpt lat="44.1782" lon="4.23054">
        <ele>135</ele>
        <time>2010-01-01T00:29:08Z</time>
      </trkpt>
      <trkpt lat="44.17807" lon="4.23084">
        <ele>135</ele>
        <time>2010-01-01T00:29:19Z</time>
      </trkpt>
      <trkpt lat="44.17795" lon="4.23111">
        <ele>135</ele>
        <time>2010-01-01T00:29:28Z</time>
      </trkpt>
      <trkpt lat="44.17786" lon="4.2313">
        <ele>136</ele>
        <time>2010-01-01T00:29:34Z</time>
      </trkpt>
      <trkpt lat="44.1779" lon="4.23149">
        <ele>136</ele>
        <time>2010-01-01T00:29:40Z</time>
      </trkpt>
      <trkpt lat="44.17808" lon="4.23158">
        <ele>136</ele>
        <time>2010-01-01T00:29:48Z</time>
      </trkpt>
      <trkpt lat="44.17828" lon="4.23164">
        <ele>136</ele>
        <time>2010-01-01T00:29:56Z</time>
      </trkpt>
      <trkpt lat="44.17848" lon="4.23169">
        <ele>137</ele>
        <time>2010-01-01T00:30:04Z</time>
      </trkpt>
      <trkpt lat="44.17869" lon="4.23172">
        <ele>137</ele>
        <time>2010-01-01T00:30:13Z</time>
      </trkpt>
      <trkpt lat="44.17891" lon="4.23173">
        <ele>137</ele>
        <time>2010-01-01T00:30:21Z</time>
      </trkpt>
      <trkpt lat="44.1791" lon="4.23176">
        <ele>137</ele>
        <time>2010-01-01T00:30:29Z</time>
      </trkpt>
      <trkpt lat="44.1793" lon="4.23179">
        <ele>137</ele>
        <time>2010-01-01T00:30:37Z</time>
      </trkpt>
      <trkpt lat="44.17952" lon="4.23181">
        <ele>137</ele>
        <time>2010-01-01T00:30:46Z</time>
      </trkpt>
      <trkpt lat="44.17975" lon="4.23186">
        <ele>137</ele>
        <time>2010-01-01T00:30:55Z</time>
      </trkpt>
      <trkpt lat="44.17997" lon="4.23193">
        <ele>137</ele>
        <time>2010-01-01T00:31:04Z</time>
      </trkpt>
      <trkpt lat="44.1802" lon="4.23203">
        <ele>137</ele>
        <time>2010-01-01T00:31:14Z</time>
      </trkpt>
      <trkpt lat="44.18044" lon="4.23212">
        <ele>137</ele>
        <time>2010-01-01T00:31:24Z</time>
      </trkpt>
      <trkpt lat="44.18066" lon="4.232">
        <ele>136</ele>
        <time>2010-01-01T00:31:33Z</time>
      </trkpt>
      <trkpt lat="44.18085" lon="4.23171">
        <ele>135</ele>
        <time>2010-01-01T00:31:44Z</time>
      </trkpt>
      <trkpt lat="44.18095" lon="4.23138">
        <ele>135</ele>
        <time>2010-01-01T00:31:55Z</time>
      </trkpt>
      <trkpt lat="44.18104" lon="4.23103">
        <ele>135</ele>
        <time>2010-01-01T00:32:05Z</time>
      </trkpt>
      <trkpt lat="44.18113" lon="4.2307">
        <ele>136</ele>
        <time>2010-01-01T00:32:16Z</time>
      </trkpt>
      <trkpt lat="44.18121" lon="4.23037">
        <ele>136</ele>
        <time>2010-01-01T00:32:25Z</time>
      </trkpt>
      <trkpt lat="44.18134" lon="4.23014">
        <ele>135</ele>
        <time>2010-01-01T00:32:34Z</time>
      </trkpt>
      <trkpt lat="44.18151" lon="4.23014">
        <ele>135</ele>
        <time>2010-01-01T00:32:41Z</time>
      </trkpt>
      <trkpt lat="44.18165" lon="4.23014">
        <ele>135</ele>
        <time>2010-01-01T00:32:46Z</time>
      </trkpt>
      <trkpt lat="44.18173" lon="4.23007">
        <ele>135</ele>
        <time>2010-01-01T00:32:50Z</time>
      </trkpt>
      <trkpt lat="44.18177" lon="4.23001">
        <ele>135</ele>
        <time>2010-01-01T00:32:53Z</time>
      </trkpt>
      <trkpt lat="44.18181" lon="4.22997">
        <ele>135</ele>
        <time>2010-01-01T00:32:55Z</time>
      </trkpt>
      <trkpt lat="44.18187" lon="4.2299">
        <ele>134</ele>
        <time>2010-01-01T00:32:58Z</time>
      </trkpt>
      <trkpt lat="44.18195" lon="4.2297">
        <ele>134</ele>
        <time>2010-01-01T00:33:04Z</time>
      </trkpt>
      <trkpt lat="44.18203" lon="4.22949">
        <ele>134</ele>
        <time>2010-01-01T00:33:11Z</time>
      </trkpt>
      <trkpt lat="44.18211" lon="4.22928">
        <ele>134</ele>
        <time>2010-01-01T00:33:18Z</time>
      </trkpt>
      <trkpt lat="44.18221" lon="4.22913">
        <ele>134</ele>
        <time>2010-01-01T00:33:24Z</time>
      </trkpt>
      <trkpt lat="44.18229" lon="4.22909">
        <ele>134</ele>
        <time>2010-01-01T00:33:27Z</time>
      </trkpt>
      <trkpt lat="44.18241" lon="4.22902">
        <ele>134</ele>
        <time>2010-01-01T00:33:33Z</time>
      </trkpt>
      <trkpt lat="44.18258" lon="4.22896">
        <ele>133</ele>
        <time>2010-01-01T00:33:39Z</time>
      </trkpt>
      <trkpt lat="44.18278" lon="4.22888">
        <ele>133</ele>
        <time>2010-01-01T00:33:48Z</time>
      </trkpt>
      <trkpt lat="44.18297" lon="4.22883">
        <ele>133</ele>
        <time>2010-01-01T00:33:55Z</time>
      </trkpt>
      <trkpt lat="44.18317" lon="4.22887">
        <ele>133</ele>
        <time>2010-01-01T00:34:04Z</time>
      </trkpt>
      <trkpt lat="44.18338" lon="4.22892">
        <ele>133</ele>
        <time>2010-01-01T00:34:12Z</time>
      </trkpt>
      <trkpt lat="44.18359" lon="4.22886">
        <ele>133</ele>
        <time>2010-01-01T00:34:21Z</time>
      </trkpt>
      <trkpt lat="44.1838" lon="4.22883">
        <ele>133</ele>
        <time>2010-01-01T00:34:29Z</time>
      </trkpt>
      <trkpt lat="44.18396" lon="4.22899">
        <ele>133</ele>
        <time>2010-01-01T00:34:37Z</time>
      </trkpt>
      <trkpt lat="44.18403" lon="4.22921">
        <ele>132</ele>
        <time>2010-01-01T00:34:44Z</time>
      </trkpt>
      <trkpt lat="44.18408" lon="4.22946">
        <ele>132</ele>
        <time>2010-01-01T00:34:52Z</time>
      </trkpt>
      <trkpt lat="44.18414" lon="4.22969">
        <ele>132</ele>
        <time>2010-01-01T00:34:58Z</time>
      </trkpt>
      <trkpt lat="44.18425" lon="4.22992">
        <ele>132</ele>
        <time>2010-01-01T00:35:06Z</time>
      </trkpt>
      <trkpt lat="44.18443" lon="4.2301">
        <ele>132</ele>
        <time>2010-01-01T00:35:15Z</time>
      </trkpt>
      <trkpt lat="44.18462" lon="4.2303">
        <ele>132</ele>
        <time>2010-01-01T00:35:25Z</time>
      </trkpt>
      <trkpt lat="44.18485" lon="4.23044">
        <ele>132</ele>
        <time>2010-01-01T00:35:35Z</time>
      </trkpt>
      <trkpt lat="44.18502" lon="4.23068">
        <ele>132</ele>
        <time>2010-01-01T00:35:44Z</time>
      </trkpt>
      <trkpt lat="44.18513" lon="4.23092">
        <ele>132</ele>
        <time>2010-01-01T00:35:52Z</time>
      </trkpt>
      <trkpt lat="44.18531" lon="4.231">
        <ele>132</ele>
        <time>2010-01-01T00:36:00Z</time>
      </trkpt>
      <trkpt lat="44.18555" lon="4.23111">
        <ele>133</ele>
        <time>2010-01-01T00:36:10Z</time>
      </trkpt>
      <trkpt lat="44.18578" lon="4.23127">
        <ele>133</ele>
        <time>2010-01-01T00:36:21Z</time>
      </trkpt>
      <trkpt lat="44.18603" lon="4.23141">
        <ele>134</ele>
        <time>2010-01-01T00:36:31Z</time>
      </trkpt>
      <trkpt lat="44.18627" lon="4.23156">
        <ele>134</ele>
        <time>2010-01-01T00:36:42Z</time>
      </trkpt>
      <trkpt lat="44.18653" lon="4.23173">
        <ele>134</ele>
        <time>2010-01-01T00:36:53Z</time>
      </trkpt>
      <trkpt lat="44.18675" lon="4.23193">
        <ele>135</ele>
        <time>2010-01-01T00:37:04Z</time>
      </trkpt>
      <trkpt lat="44.18698" lon="4.23211">
        <ele>134</ele>
        <time>2010-01-01T00:37:15Z</time>
      </trkpt>
      <trkpt lat="44.18722" lon="4.23226">
        <ele>134</ele>
        <time>2010-01-01T00:37:25Z</time>
      </trkpt>
      <trkpt lat="44.18744" lon="4.23246">
        <ele>133</ele>
        <time>2010-01-01T00:37:36Z</time>
      </trkpt>
      <trkpt lat="44.18766" lon="4.23266">
        <ele>134</ele>
        <time>2010-01-01T00:37:46Z</time>
      </trkpt>
      <trkpt lat="44.18789" lon="4.23282">
        <ele>134</ele>
        <time>2010-01-01T00:37:56Z</time>
      </trkpt>
      <trkpt lat="44.18804" lon="4.2328">
        <ele>134</ele>
        <time>2010-01-01T00:38:02Z</time>
      </trkpt>
      <trkpt lat="44.18814" lon="4.2326">
        <ele>136</ele>
        <time>2010-01-01T00:38:09Z</time>
      </trkpt>
      <trkpt lat="44.18822" lon="4.23235">
        <ele>139</ele>
        <time>2010-01-01T00:38:17Z</time>
      </trkpt>
      <trkpt lat="44.18821" lon="4.23212">
        <ele>140</ele>
        <time>2010-01-01T00:38:24Z</time>
      </trkpt>
      <trkpt lat="44.18822" lon="4.2321">
        <ele>140</ele>
        <time>2010-01-01T00:38:24Z</time>
      </trkpt>
      <trkpt lat="44.18822" lon="4.2321">
        <ele>140</ele>
        <time>2010-01-01T00:38:24Z</time>
      </trkpt>
      <trkpt lat="44.18822" lon="4.23194">
        <ele>142</ele>
        <time>2010-01-01T00:38:29Z</time>
      </trkpt>
      <trkpt lat="44.18821" lon="4.23188">
        <ele>142</ele>
        <time>2010-01-01T00:38:31Z</time>
      </trkpt>
      <trkpt lat="44.18821" lon="4.23187">
        <ele>142</ele>
        <time>2010-01-01T00:38:31Z</time>
      </trkpt>
      <trkpt lat="44.18802" lon="4.2319">
        <ele>140</ele>
        <time>2010-01-01T00:38:38Z</time>
      </trkpt>
      <trkpt lat="44.18782" lon="4.23182">
        <ele>139</ele>
        <time>2010-01-01T00:38:47Z</time>
      </trkpt>
      <trkpt lat="44.18759" lon="4.23173">
        <ele>138</ele>
        <time>2010-01-01T00:38:56Z</time>
      </trkpt>
      <trkpt lat="44.18736" lon="4.23165">
        <ele>137</ele>
        <time>2010-01-01T00:39:06Z</time>
      </trkpt>
      <trkpt lat="44.18713" lon="4.23158">
        <ele>137</ele>
        <time>2010-01-01T00:39:15Z</time>
      </trkpt>
      <trkpt lat="44.1869" lon="4.23146">
        <ele>136</ele>
        <time>2010-01-01T00:39:25Z</time>
      </trkpt>
      <trkpt lat="44.18674" lon="4.23125">
        <ele>136</ele>
        <time>2010-01-01T00:39:34Z</time>
      </trkpt>
      <trkpt lat="44.18663" lon="4.23102">
        <ele>135</ele>
        <time>2010-01-01T00:39:42Z</time>
      </trkpt>
      <trkpt lat="44.18647" lon="4.23079">
        <ele>136</ele>
        <time>2010-01-01T00:39:51Z</time>
      </trkpt>
      <trkpt lat="44.18631" lon="4.23058">
        <ele>136</ele>
        <time>2010-01-01T00:40:00Z</time>
      </trkpt>
      <trkpt lat="44.18617" lon="4.23036">
        <ele>137</ele>
        <time>2010-01-01T00:40:08Z</time>
      </trkpt>
      <trkpt lat="44.18609" lon="4.23014">
        <ele>137</ele>
        <time>2010-01-01T00:40:15Z</time>
      </trkpt>
      <trkpt lat="44.18623" lon="4.22997">
        <ele>138</ele>
        <time>2010-01-01T00:40:23Z</time>
      </trkpt>
      <trkpt lat="44.18639" lon="4.22981">
        <ele>138</ele>
        <time>2010-01-01T00:40:30Z</time>
      </trkpt>
      <trkpt lat="44.18652" lon="4.22963">
        <ele>138</ele>
        <time>2010-01-01T00:40:38Z</time>
      </trkpt>
      <trkpt lat="44.18672" lon="4.22961">
        <ele>140</ele>
        <time>2010-01-01T00:40:46Z</time>
      </trkpt>
      <trkpt lat="44.18692" lon="4.2297">
        <ele>140</ele>
        <time>2010-01-01T00:40:54Z</time>
      </trkpt>
      <trkpt lat="44.18712" lon="4.22968">
        <ele>141</ele>
        <time>2010-01-01T00:41:02Z</time>
      </trkpt>
      <trkpt lat="44.1873" lon="4.22958">
        <ele>141</ele>
        <time>2010-01-01T00:41:10Z</time>
      </trkpt>
      <trkpt lat="44.18747" lon="4.22945">
        <ele>142</ele>
        <time>2010-01-01T00:41:18Z</time>
      </trkpt>
      <trkpt lat="44.18756" lon="4.22966">
        <ele>146</ele>
        <time>2010-01-01T00:41:25Z</time>
      </trkpt>
      <trkpt lat="44.18773" lon="4.22989">
        <ele>146</ele>
        <time>2010-01-01T00:41:34Z</time>
      </trkpt>
      <trkpt lat="44.1879" lon="4.2301">
        <ele>147</ele>
        <time>2010-01-01T00:41:43Z</time>
      </trkpt>
      <trkpt lat="44.18799" lon="4.23035">
        <ele>147</ele>
        <time>2010-01-01T00:41:51Z</time>
      </trkpt>
      <trkpt lat="44.18812" lon="4.2305">
        <ele>148</ele>
        <time>2010-01-01T00:41:58Z</time>
      </trkpt>
      <trkpt lat="44.18816" lon="4.23035">
        <ele>148</ele>
        <time>2010-01-01T00:42:03Z</time>
      </trkpt>
      <trkpt lat="44.18814" lon="4.23019">
        <ele>149</ele>
        <time>2010-01-01T00:42:07Z</time>
      </trkpt>
      <trkpt lat="44.18814" lon="4.23002">
        <ele>149</ele>
        <time>2010-01-01T00:42:12Z</time>
      </trkpt>
      <trkpt lat="44.18814" lon="4.22982">
        <ele>150</ele>
        <time>2010-01-01T00:42:18Z</time>
      </trkpt>
      <trkpt lat="44.18815" lon="4.22962">
        <ele>150</ele>
        <time>2010-01-01T00:42:24Z</time>
      </trkpt>
      <trkpt lat="44.18818" lon="4.22942">
        <ele>150</ele>
        <time>2010-01-01T00:42:30Z</time>
      </trkpt>
      <trkpt lat="44.18822" lon="4.22922">
        <ele>152</ele>
        <time>2010-01-01T00:42:36Z</time>
      </trkpt>
      <trkpt lat="44.18824" lon="4.22904">
        <ele>154</ele>
        <time>2010-01-01T00:42:41Z</time>
      </trkpt>
      <trkpt lat="44.18821" lon="4.22885">
        <ele>154</ele>
        <time>2010-01-01T00:42:46Z</time>
      </trkpt>
      <trkpt lat="44.18819" lon="4.22864">
        <ele>155</ele>
        <time>2010-01-01T00:42:53Z</time>
      </trkpt>
      <trkpt lat="44.18814" lon="4.22843">
        <ele>156</ele>
        <time>2010-01-01T00:42:59Z</time>
      </trkpt>
      <trkpt lat="44.18811" lon="4.22823">
        <ele>160</ele>
        <time>2010-01-01T00:43:05Z</time>
      </trkpt>
      <trkpt lat="44.18807" lon="4.22804">
        <ele>160</ele>
        <time>2010-01-01T00:43:10Z</time>
      </trkpt>
      <trkpt lat="44.18802" lon="4.22785">
        <ele>160</ele>
        <time>2010-01-01T00:43:16Z</time>
      </trkpt>
      <trkpt lat="44.18797" lon="4.22767">
        <ele>161</ele>
        <time>2010-01-01T00:43:22Z</time>
      </trkpt>
      <trkpt lat="44.18792" lon="4.22751">
        <ele>160</ele>
        <time>2010-01-01T00:43:27Z</time>
      </trkpt>
      <trkpt lat="44.18787" lon="4.22732">
        <ele>165</ele>
        <time>2010-01-01T00:43:33Z</time>
      </trkpt>
      <trkpt lat="44.18782" lon="4.22712">
        <ele>166</ele>
        <time>2010-01-01T00:43:39Z</time>
      </trkpt>
      <trkpt lat="44.18777" lon="4.2269">
        <ele>166</ele>
        <time>2010-01-01T00:43:45Z</time>
      </trkpt>
      <trkpt lat="44.18772" lon="4.22672">
        <ele>166</ele>
        <time>2010-01-01T00:43:51Z</time>
      </trkpt>
      <trkpt lat="44.18766" lon="4.22652">
        <ele>168</ele>
        <time>2010-01-01T00:43:57Z</time>
      </trkpt>
      <trkpt lat="44.18762" lon="4.22637">
        <ele>169</ele>
        <time>2010-01-01T00:44:02Z</time>
      </trkpt>
      <trkpt lat="44.18757" lon="4.22617">
        <ele>169</ele>
        <time>2010-01-01T00:44:08Z</time>
      </trkpt>
      <trkpt lat="44.18749" lon="4.22595">
        <ele>167</ele>
        <time>2010-01-01T00:44:15Z</time>
      </trkpt>
      <trkpt lat="44.18746" lon="4.22569">
        <ele>168</ele>
        <time>2010-01-01T00:44:22Z</time>
      </trkpt>
      <trkpt lat="44.18744" lon="4.22541">
        <ele>168</ele>
        <time>2010-01-01T00:44:30Z</time>
      </trkpt>
      <trkpt lat="44.18749" lon="4.22517">
        <ele>169</ele>
        <time>2010-01-01T00:44:37Z</time>
      </trkpt>
      <trkpt lat="44.18759" lon="4.22519">
        <ele>171</ele>
        <time>2010-01-01T00:44:42Z</time>
      </trkpt>
      <trkpt lat="44.18771" lon="4.2253">
        <ele>171</ele>
        <time>2010-01-01T00:44:47Z</time>
      </trkpt>
      <trkpt lat="44.18783" lon="4.22535">
        <ele>171</ele>
        <time>2010-01-01T00:44:52Z</time>
      </trkpt>
      <trkpt lat="44.18795" lon="4.22533">
        <ele>172</ele>
        <time>2010-01-01T00:44:57Z</time>
      </trkpt>
      <trkpt lat="44.18808" lon="4.22519">
        <ele>172</ele>
        <time>2010-01-01T00:45:04Z</time>
      </trkpt>
      <trkpt lat="44.18823" lon="4.22499">
        <ele>173</ele>
        <time>2010-01-01T00:45:12Z</time>
      </trkpt>
      <trkpt lat="44.18841" lon="4.22484">
        <ele>172</ele>
        <time>2010-01-01T00:45:21Z</time>
      </trkpt>
      <trkpt lat="44.18861" lon="4.22471">
        <ele>171</ele>
        <time>2010-01-01T00:45:30Z</time>
      </trkpt>
      <trkpt lat="44.18883" lon="4.22458">
        <ele>171</ele>
        <time>2010-01-01T00:45:39Z</time>
      </trkpt>
      <trkpt lat="44.18898" lon="4.22427">
        <ele>169</ele>
        <time>2010-01-01T00:45:50Z</time>
      </trkpt>
      <trkpt lat="44.18893" lon="4.22403">
        <ele>166</ele>
        <time>2010-01-01T00:45:57Z</time>
      </trkpt>
      <trkpt lat="44.18904" lon="4.22376">
        <ele>165</ele>
        <time>2010-01-01T00:46:06Z</time>
      </trkpt>
      <trkpt lat="44.18915" lon="4.22335">
        <ele>160</ele>
        <time>2010-01-01T00:46:18Z</time>
      </trkpt>
      <trkpt lat="44.1894" lon="4.22324">
        <ele>155</ele>
        <time>2010-01-01T00:46:29Z</time>
      </trkpt>
      <trkpt lat="44.18965" lon="4.22319">
        <ele>152</ele>
        <time>2010-01-01T00:46:39Z</time>
      </trkpt>
      <trkpt lat="44.18983" lon="4.22298">
        <ele>151</ele>
        <time>2010-01-01T00:46:48Z</time>
      </trkpt>
      <trkpt lat="44.19006" lon="4.22309">
        <ele>148</ele>
        <time>2010-01-01T00:46:58Z</time>
      </trkpt>
      <trkpt lat="44.19026" lon="4.22327">
        <ele>148</ele>
        <time>2010-01-01T00:47:08Z</time>
      </trkpt>
      <trkpt lat="44.19047" lon="4.22347">
        <ele>149</ele>
        <time>2010-01-01T00:47:18Z</time>
      </trkpt>
      <trkpt lat="44.19065" lon="4.22367">
        <ele>149</ele>
        <time>2010-01-01T00:47:27Z</time>
      </trkpt>
      <trkpt lat="44.1908" lon="4.22387">
        <ele>149</ele>
        <time>2010-01-01T00:47:36Z</time>
      </trkpt>
      <trkpt lat="44.19093" lon="4.22412">
        <ele>147</ele>
        <time>2010-01-01T00:47:44Z</time>
      </trkpt>
      <trkpt lat="44.19104" lon="4.22449">
        <ele>147</ele>
        <time>2010-01-01T00:47:56Z</time>
      </trkpt>
      <trkpt lat="44.19117" lon="4.22483">
        <ele>148</ele>
        <time>2010-01-01T00:48:07Z</time>
      </trkpt>
      <trkpt lat="44.19134" lon="4.22509">
        <ele>148</ele>
        <time>2010-01-01T00:48:17Z</time>
      </trkpt>
      <trkpt lat="44.19155" lon="4.22529">
        <ele>147</ele>
        <time>2010-01-01T00:48:27Z</time>
      </trkpt>
      <trkpt lat="44.19182" lon="4.22551">
        <ele>143</ele>
        <time>2010-01-01T00:48:40Z</time>
      </trkpt>
      <trkpt lat="44.19205" lon="4.22578">
        <ele>142</ele>
        <time>2010-01-01T00:48:52Z</time>
      </trkpt>
      <trkpt lat="44.19227" lon="4.226">
        <ele>143</ele>
        <time>2010-01-01T00:49:03Z</time>
      </trkpt>
      <trkpt lat="44.19248" lon="4.22619">
        <ele>143</ele>
        <time>2010-01-01T00:49:13Z</time>
      </trkpt>
      <trkpt lat="44.19245" lon="4.22636">
        <ele>144</ele>
        <time>2010-01-01T00:49:18Z</time>
      </trkpt>
      <trkpt lat="44.19241" lon="4.2265">
        <ele>144</ele>
        <time>2010-01-01T00:49:22Z</time>
      </trkpt>
      <trkpt lat="44.19236" lon="4.22663">
        <ele>144</ele>
        <time>2010-01-01T00:49:26Z</time>
      </trkpt>
      <trkpt lat="44.19233" lon="4.22675">
        <ele>147</ele>
        <time>2010-01-01T00:49:30Z</time>
      </trkpt>
      <trkpt lat="44.19228" lon="4.22686">
        <ele>148</ele>
        <time>2010-01-01T00:49:33Z</time>
      </trkpt>
      <trkpt lat="44.19222" lon="4.22694">
        <ele>148</ele>
        <time>2010-01-01T00:49:37Z</time>
      </trkpt>
      <trkpt lat="44.19215" lon="4.22702">
        <ele>149</ele>
        <time>2010-01-01T00:49:40Z</time>
      </trkpt>
      <trkpt lat="44.19208" lon="4.22712">
        <ele>150</ele>
        <time>2010-01-01T00:49:44Z</time>
      </trkpt>
      <trkpt lat="44.19202" lon="4.22721">
        <ele>150</ele>
        <time>2010-01-01T00:49:48Z</time>
      </trkpt>
      <trkpt lat="44.19196" lon="4.2273">
        <ele>151</ele>
        <time>2010-01-01T00:49:52Z</time>
      </trkpt>
      <trkpt lat="44.19189" lon="4.2274">
        <ele>152</ele>
        <time>2010-01-01T00:49:55Z</time>
      </trkpt>
      <trkpt lat="44.19184" lon="4.2275">
        <ele>155</ele>
        <time>2010-01-01T00:49:59Z</time>
      </trkpt>
      <trkpt lat="44.19182" lon="4.22764">
        <ele>155</ele>
        <time>2010-01-01T00:50:03Z</time>
      </trkpt>
      <trkpt lat="44.19179" lon="4.2278">
        <ele>155</ele>
        <time>2010-01-01T00:50:08Z</time>
      </trkpt>
      <trkpt lat="44.19177" lon="4.22795">
        <ele>156</ele>
        <time>2010-01-01T00:50:12Z</time>
      </trkpt>
      <trkpt lat="44.19178" lon="4.22811">
        <ele>157</ele>
        <time>2010-01-01T00:50:17Z</time>
      </trkpt>
      <trkpt lat="44.19177" lon="4.22827">
        <ele>158</ele>
        <time>2010-01-01T00:50:21Z</time>
      </trkpt>
      <trkpt lat="44.19189" lon="4.2284">
        <ele>159</ele>
        <time>2010-01-01T00:50:27Z</time>
      </trkpt>
      <trkpt lat="44.19202" lon="4.22856">
        <ele>158</ele>
        <time>2010-01-01T00:50:34Z</time>
      </trkpt>
      <trkpt lat="44.1921" lon="4.22868">
        <ele>158</ele>
        <time>2010-01-01T00:50:39Z</time>
      </trkpt>
      <trkpt lat="44.19214" lon="4.22883">
        <ele>158</ele>
        <time>2010-01-01T00:50:44Z</time>
      </trkpt>
      <trkpt lat="44.19209" lon="4.22889">
        <ele>158</ele>
        <time>2010-01-01T00:50:46Z</time>
      </trkpt>
      <trkpt lat="44.19207" lon="4.22898">
        <ele>159</ele>
        <time>2010-01-01T00:50:49Z</time>
      </trkpt>
      <trkpt lat="44.19197" lon="4.22894">
        <ele>159</ele>
        <time>2010-01-01T00:50:54Z</time>
      </trkpt>
      <trkpt lat="44.19183" lon="4.22885">
        <ele>160</ele>
        <time>2010-01-01T00:51:00Z</time>
      </trkpt>
      <trkpt lat="44.1917" lon="4.22871">
        <ele>160</ele>
        <time>2010-01-01T00:51:06Z</time>
      </trkpt>
      <trkpt lat="44.1916" lon="4.2286">
        <ele>166</ele>
        <time>2010-01-01T00:51:11Z</time>
      </trkpt>
      <trkpt lat="44.19151" lon="4.2285">
        <ele>165</ele>
        <time>2010-01-01T00:51:16Z</time>
      </trkpt>
      <trkpt lat="44.19141" lon="4.22844">
        <ele>166</ele>
        <time>2010-01-01T00:51:20Z</time>
      </trkpt>
      <trkpt lat="44.19132" lon="4.22839">
        <ele>167</ele>
        <time>2010-01-01T00:51:24Z</time>
      </trkpt>
      <trkpt lat="44.19118" lon="4.22829">
        <ele>165</ele>
        <time>2010-01-01T00:51:30Z</time>
      </trkpt>
      <trkpt lat="44.19105" lon="4.22821">
        <ele>167</ele>
        <time>2010-01-01T00:51:36Z</time>
      </trkpt>
      <trkpt lat="44.19092" lon="4.2281">
        <ele>167</ele>
        <time>2010-01-01T00:51:42Z</time>
      </trkpt>
      <trkpt lat="44.1908" lon="4.228">
        <ele>171</ele>
        <time>2010-01-01T00:51:48Z</time>
      </trkpt>
      <trkpt lat="44.19068" lon="4.22792">
        <ele>171</ele>
        <time>2010-01-01T00:51:53Z</time>
      </trkpt>
      <trkpt lat="44.19053" lon="4.22784">
        <ele>171</ele>
        <time>2010-01-01T00:52:00Z</time>
      </trkpt>
      <trkpt lat="44.19033" lon="4.22777">
        <ele>171</ele>
        <time>2010-01-01T00:52:08Z</time>
      </trkpt>
      <trkpt lat="44.19015" lon="4.22772">
        <ele>171</ele>
        <time>2010-01-01T00:52:15Z</time>
      </trkpt>
      <trkpt lat="44.19006" lon="4.22755">
        <ele>171</ele>
        <time>2010-01-01T00:52:21Z</time>
      </trkpt>
      <trkpt lat="44.18996" lon="4.22749">
        <ele>172</ele>
        <time>2010-01-01T00:52:26Z</time>
      </trkpt>
      <trkpt lat="44.18985" lon="4.22745">
        <ele>173</ele>
        <time>2010-01-01T00:52:30Z</time>
      </trkpt>
      <trkpt lat="44.18977" lon="4.22738">
        <ele>174</ele>
        <time>2010-01-01T00:52:34Z</time>
      </trkpt>
      <trkpt lat="44.18966" lon="4.22736">
        <ele>174</ele>
        <time>2010-01-01T00:52:39Z</time>
      </trkpt>
      <trkpt lat="44.18955" lon="4.22731">
        <ele>175</ele>
        <time>2010-01-01T00:52:43Z</time>
      </trkpt>
      <trkpt lat="44.18944" lon="4.22724">
        <ele>176</ele>
        <time>2010-01-01T00:52:48Z</time>
      </trkpt>
      <trkpt lat="44.1893" lon="4.2272">
        <ele>176</ele>
        <time>2010-01-01T00:52:53Z</time>
      </trkpt>
      <trkpt lat="44.18918" lon="4.22722">
        <ele>177</ele>
        <time>2010-01-01T00:52:58Z</time>
      </trkpt>
      <trkpt lat="44.18908" lon="4.22725">
        <ele>177</ele>
        <time>2010-01-01T00:53:03Z</time>
      </trkpt>
      <trkpt lat="44.18896" lon="4.22725">
        <ele>177</ele>
        <time>2010-01-01T00:53:07Z</time>
      </trkpt>
      <trkpt lat="44.1889" lon="4.22734">
        <ele>177</ele>
        <time>2010-01-01T00:53:11Z</time>
      </trkpt>
      <trkpt lat="44.18892" lon="4.22754">
        <ele>175</ele>
        <time>2010-01-01T00:53:17Z</time>
      </trkpt>
      <trkpt lat="44.18893" lon="4.22779">
        <ele>175</ele>
        <time>2010-01-01T00:53:24Z</time>
      </trkpt>
      <trkpt lat="44.18899" lon="4.22803">
        <ele>175</ele>
        <time>2010-01-01T00:53:31Z</time>
      </trkpt>
      <trkpt lat="44.18904" lon="4.22822">
        <ele>176</ele>
        <time>2010-01-01T00:53:37Z</time>
      </trkpt>
      <trkpt lat="44.18909" lon="4.22847">
        <ele>175</ele>
        <time>2010-01-01T00:53:45Z</time>
      </trkpt>
      <trkpt lat="44.18911" lon="4.22871">
        <ele>173</ele>
        <time>2010-01-01T00:53:51Z</time>
      </trkpt>
      <trkpt lat="44.18912" lon="4.2289">
        <ele>174</ele>
        <time>2010-01-01T00:53:57Z</time>
      </trkpt>
      <trkpt lat="44.18921" lon="4.22903">
        <ele>180</ele>
        <time>2010-01-01T00:54:02Z</time>
      </trkpt>
      <trkpt lat="44.18923" lon="4.2292">
        <ele>180</ele>
        <time>2010-01-01T00:54:07Z</time>
      </trkpt>
      <trkpt lat="44.18926" lon="4.2294">
        <ele>181</ele>
        <time>2010-01-01T00:54:13Z</time>
      </trkpt>
      <trkpt lat="44.18931" lon="4.22961">
        <ele>180</ele>
        <time>2010-01-01T00:54:19Z</time>
      </trkpt>
      <trkpt lat="44.1894" lon="4.22987">
        <ele>180</ele>
        <time>2010-01-01T00:54:27Z</time>
      </trkpt>
      <trkpt lat="44.18943" lon="4.23016">
        <ele>180</ele>
        <time>2010-01-01T00:54:36Z</time>
      </trkpt>
      <trkpt lat="44.18947" lon="4.23038">
        <ele>181</ele>
        <time>2010-01-01T00:54:42Z</time>
      </trkpt>
      <trkpt lat="44.1895" lon="4.23056">
        <ele>181</ele>
        <time>2010-01-01T00:54:48Z</time>
      </trkpt>
      <trkpt lat="44.18952" lon="4.23073">
        <ele>181</ele>
        <time>2010-01-01T00:54:53Z</time>
      </trkpt>
      <trkpt lat="44.1896" lon="4.23088">
        <ele>182</ele>
        <time>2010-01-01T00:54:58Z</time>
      </trkpt>
      <trkpt lat="44.1896" lon="4.23109">
        <ele>181</ele>
        <time>2010-01-01T00:55:04Z</time>
      </trkpt>
      <trkpt lat="44.18965" lon="4.23126">
        <ele>182</ele>
        <time>2010-01-01T00:55:09Z</time>
      </trkpt>
      <trkpt lat="44.18973" lon="4.23142">
        <ele>182</ele>
        <time>2010-01-01T00:55:15Z</time>
      </trkpt>
      <trkpt lat="44.18979" lon="4.23157">
        <ele>183</ele>
        <time>2010-01-01T00:55:20Z</time>
      </trkpt>
      <trkpt lat="44.18987" lon="4.23176">
        <ele>182</ele>
        <time>2010-01-01T00:55:26Z</time>
      </trkpt>
      <trkpt lat="44.18996" lon="4.23198">
        <ele>180</ele>
        <time>2010-01-01T00:55:33Z</time>
      </trkpt>
      <trkpt lat="44.19011" lon="4.23204">
        <ele>182</ele>
        <time>2010-01-01T00:55:40Z</time>
      </trkpt>
      <trkpt lat="44.19029" lon="4.23202">
        <ele>181</ele>
        <time>2010-01-01T00:55:47Z</time>
      </trkpt>
      <trkpt lat="44.19048" lon="4.23202">
        <ele>180</ele>
        <time>2010-01-01T00:55:55Z</time>
      </trkpt>
      <trkpt lat="44.19069" lon="4.232">
        <ele>180</ele>
        <time>2010-01-01T00:56:03Z</time>
      </trkpt>
      <trkpt lat="44.19091" lon="4.23193">
        <ele>174</ele>
        <time>2010-01-01T00:56:12Z</time>
      </trkpt>
      <trkpt lat="44.19113" lon="4.23184">
        <ele>172</ele>
        <time>2010-01-01T00:56:21Z</time>
      </trkpt>
      <trkpt lat="44.19134" lon="4.23172">
        <ele>170</ele>
        <time>2010-01-01T00:56:30Z</time>
      </trkpt>
      <trkpt lat="44.19155" lon="4.23168">
        <ele>167</ele>
        <time>2010-01-01T00:56:39Z</time>
      </trkpt>
      <trkpt lat="44.1918" lon="4.2317">
        <ele>162</ele>
        <time>2010-01-01T00:56:49Z</time>
      </trkpt>
      <trkpt lat="44.19206" lon="4.23166">
        <ele>160</ele>
        <time>2010-01-01T00:56:59Z</time>
      </trkpt>
      <trkpt lat="44.19232" lon="4.23164">
        <ele>157</ele>
        <time>2010-01-01T00:57:10Z</time>
      </trkpt>
      <trkpt lat="44.19256" lon="4.2317">
        <ele>153</ele>
        <time>2010-01-01T00:57:19Z</time>
      </trkpt>
      <trkpt lat="44.19279" lon="4.23193">
        <ele>152</ele>
        <time>2010-01-01T00:57:31Z</time>
      </trkpt>
      <trkpt lat="44.19297" lon="4.23187">
        <ele>152</ele>
        <time>2010-01-01T00:57:38Z</time>
      </trkpt>
      <trkpt lat="44.19312" lon="4.23162">
        <ele>152</ele>
        <time>2010-01-01T00:57:48Z</time>
      </trkpt>
      <trkpt lat="44.19327" lon="4.23138">
        <ele>151</ele>
        <time>2010-01-01T00:57:57Z</time>
      </trkpt>
      <trkpt lat="44.19345" lon="4.23143">
        <ele>150</ele>
        <time>2010-01-01T00:58:04Z</time>
      </trkpt>
      <trkpt lat="44.1936" lon="4.23153">
        <ele>150</ele>
        <time>2010-01-01T00:58:11Z</time>
      </trkpt>
      <trkpt lat="44.19373" lon="4.23163">
        <ele>151</ele>
        <time>2010-01-01T00:58:17Z</time>
      </trkpt>
      <trkpt lat="44.19384" lon="4.23169">
        <ele>154</ele>
        <time>2010-01-01T00:58:22Z</time>
      </trkpt>
      <trkpt lat="44.19394" lon="4.23176">
        <ele>154</ele>
        <time>2010-01-01T00:58:26Z</time>
      </trkpt>
      <trkpt lat="44.19396" lon="4.23189">
        <ele>154</ele>
        <time>2010-01-01T00:58:30Z</time>
      </trkpt>
      <trkpt lat="44.19395" lon="4.23206">
        <ele>155</ele>
        <time>2010-01-01T00:58:35Z</time>
      </trkpt>
      <trkpt lat="44.19391" lon="4.23228">
        <ele>155</ele>
        <time>2010-01-01T00:58:41Z</time>
      </trkpt>
      <trkpt lat="44.19385" lon="4.23252">
        <ele>157</ele>
        <time>2010-01-01T00:58:49Z</time>
      </trkpt>
      <trkpt lat="44.19379" lon="4.23277">
        <ele>157</ele>
        <time>2010-01-01T00:58:56Z</time>
      </trkpt>
      <trkpt lat="44.19373" lon="4.23303">
        <ele>157</ele>
        <time>2010-01-01T00:59:04Z</time>
      </trkpt>
      <trkpt lat="44.19366" lon="4.23325">
        <ele>156</ele>
        <time>2010-01-01T00:59:11Z</time>
      </trkpt>
      <trkpt lat="44.19359" lon="4.23344">
        <ele>158</ele>
        <time>2010-01-01T00:59:17Z</time>
      </trkpt>
      <trkpt lat="44.1935" lon="4.23361">
        <ele>159</ele>
        <time>2010-01-01T00:59:23Z</time>
      </trkpt>
      <trkpt lat="44.19342" lon="4.23377">
        <ele>159</ele>
        <time>2010-01-01T00:59:29Z</time>
      </trkpt>
      <trkpt lat="44.19346" lon="4.23388">
        <ele>160</ele>
        <time>2010-01-01T00:59:32Z</time>
      </trkpt>
      <trkpt lat="44.19353" lon="4.23396">
        <ele>160</ele>
        <time>2010-01-01T00:59:36Z</time>
      </trkpt>
      <trkpt lat="44.19359" lon="4.23403">
        <ele>160</ele>
        <time>2010-01-01T00:59:39Z</time>
      </trkpt>
      <trkpt lat="44.19368" lon="4.23407">
        <ele>161</ele>
        <time>2010-01-01T00:59:42Z</time>
      </trkpt>
      <trkpt lat="44.19377" lon="4.23413">
        <ele>162</ele>
        <time>2010-01-01T00:59:47Z</time>
      </trkpt>
      <trkpt lat="44.19388" lon="4.2342">
        <ele>166</ele>
        <time>2010-01-01T00:59:51Z</time>
      </trkpt>
      <trkpt lat="44.19398" lon="4.23426">
        <ele>167</ele>
        <time>2010-01-01T00:59:56Z</time>
      </trkpt>
      <trkpt lat="44.19408" lon="4.23433">
        <ele>167</ele>
        <time>2010-01-01T01:00:00Z</time>
      </trkpt>
      <trkpt lat="44.19417" lon="4.23435">
        <ele>167</ele>
        <time>2010-01-01T01:00:04Z</time>
      </trkpt>
      <trkpt lat="44.19429" lon="4.23435">
        <ele>167</ele>
        <time>2010-01-01T01:00:09Z</time>
      </trkpt>
      <trkpt lat="44.19444" lon="4.23438">
        <ele>166</ele>
        <time>2010-01-01T01:00:15Z</time>
      </trkpt>
      <trkpt lat="44.19458" lon="4.23445">
        <ele>166</ele>
        <time>2010-01-01T01:00:21Z</time>
      </trkpt>
      <trkpt lat="44.19457" lon="4.23456">
        <ele>166</ele>
        <time>2010-01-01T01:00:24Z</time>
      </trkpt>
      <trkpt lat="44.19453" lon="4.23467">
        <ele>167</ele>
        <time>2010-01-01T01:00:27Z</time>
      </trkpt>
      <trkpt lat="44.19455" lon="4.23483">
        <ele>168</ele>
        <time>2010-01-01T01:00:32Z</time>
      </trkpt>
      <trkpt lat="44.19453" lon="4.23496">
        <ele>168</ele>
        <time>2010-01-01T01:00:36Z</time>
      </trkpt>
      <trkpt lat="44.19449" lon="4.23505">
        <ele>174</ele>
        <time>2010-01-01T01:00:39Z</time>
      </trkpt>
      <trkpt lat="44.19444" lon="4.23514">
        <ele>174</ele>
        <time>2010-01-01T01:00:42Z</time>
      </trkpt>
      <trkpt lat="44.19443" lon="4.23525">
        <ele>174</ele>
        <time>2010-01-01T01:00:45Z</time>
      </trkpt>
      <trkpt lat="44.19445" lon="4.23538">
        <ele>175</ele>
        <time>2010-01-01T01:00:49Z</time>
      </trkpt>
      <trkpt lat="44.1945" lon="4.23548">
        <ele>175</ele>
        <time>2010-01-01T01:00:52Z</time>
      </trkpt>
      <trkpt lat="44.19458" lon="4.23558">
        <ele>175</ele>
        <time>2010-01-01T01:00:57Z</time>
      </trkpt>
      <trkpt lat="44.19464" lon="4.23573">
        <ele>175</ele>
        <time>2010-01-01T01:01:02Z</time>
      </trkpt>
      <trkpt lat="44.19473" lon="4.23587">
        <ele>178</ele>
        <time>2010-01-01T01:01:07Z</time>
      </trkpt>
      <trkpt lat="44.19482" lon="4.236">
        <ele>177</ele>
        <time>2010-01-01T01:01:12Z</time>
      </trkpt>
      <trkpt lat="44.19481" lon="4.2361">
        <ele>178</ele>
        <time>2010-01-01T01:01:15Z</time>
      </trkpt>
      <trkpt lat="44.19478" lon="4.23613">
        <ele>178</ele>
        <time>2010-01-01T01:01:17Z</time>
      </trkpt>
      <trkpt lat="44.19476" lon="4.23617">
        <ele>179</ele>
        <time>2010-01-01T01:01:18Z</time>
      </trkpt>
      <trkpt lat="44.19474" lon="4.23618">
        <ele>179</ele>
        <time>2010-01-01T01:01:19Z</time>
      </trkpt>
      <trkpt lat="44.19472" lon="4.23619">
        <ele>179</ele>
        <time>2010-01-01T01:01:20Z</time>
      </trkpt>
      <trkpt lat="44.1947" lon="4.23619">
        <ele>179</ele>
        <time>2010-01-01T01:01:21Z</time>
      </trkpt>
      <trkpt lat="44.1947" lon="4.23619">
        <ele>179</ele>
        <time>2010-01-01T01:01:21Z</time>
      </trkpt>
      <trkpt lat="44.19469" lon="4.23618">
        <ele>179</ele>
        <time>2010-01-01T01:01:21Z</time>
      </trkpt>
      <trkpt lat="44.19468" lon="4.23617">
        <ele>179</ele>
        <time>2010-01-01T01:01:22Z</time>
      </trkpt>
      <trkpt lat="44.19467" lon="4.23615">
        <ele>179</ele>
        <time>2010-01-01T01:01:22Z</time>
      </trkpt>
      <trkpt lat="44.19465" lon="4.23615">
        <ele>179</ele>
        <time>2010-01-01T01:01:23Z</time>
      </trkpt>
      <trkpt lat="44.19463" lon="4.23614">
        <ele>179</ele>
        <time>2010-01-01T01:01:24Z</time>
      </trkpt>
      <trkpt lat="44.1946" lon="4.23614">
        <ele>179</ele>
        <time>2010-01-01T01:01:25Z</time>
      </trkpt>
      <trkpt lat="44.1946" lon="4.23614">
        <ele>179</ele>
        <time>2010-01-01T01:01:25Z</time>
      </trkpt>
      <trkpt lat="44.19446" lon="4.23616">
        <ele>180</ele>
        <time>2010-01-01T01:01:31Z</time>
      </trkpt>
      <trkpt lat="44.19444" lon="4.23616">
        <ele>180</ele>
        <time>2010-01-01T01:01:32Z</time>
      </trkpt>
      <trkpt lat="44.19442" lon="4.23616">
        <ele>180</ele>
        <time>2010-01-01T01:01:33Z</time>
      </trkpt>
      <trkpt lat="44.19439" lon="4.23616">
        <ele>180</ele>
        <time>2010-01-01T01:01:33Z</time>
      </trkpt>
      <trkpt lat="44.19438" lon="4.23616">
        <ele>180</ele>
        <time>2010-01-01T01:01:34Z</time>
      </trkpt>
      <trkpt lat="44.19435" lon="4.23616">
        <ele>180</ele>
        <time>2010-01-01T01:01:35Z</time>
      </trkpt>
      <trkpt lat="44.19433" lon="4.23615">
        <ele>180</ele>
        <time>2010-01-01T01:01:36Z</time>
      </trkpt>
      <trkpt lat="44.19431" lon="4.23615">
        <ele>180</ele>
        <time>2010-01-01T01:01:37Z</time>
      </trkpt>
      <trkpt lat="44.19429" lon="4.23614">
        <ele>180</ele>
        <time>2010-01-01T01:01:38Z</time>
      </trkpt>
      <trkpt lat="44.19427" lon="4.23614">
        <ele>180</ele>
        <time>2010-01-01T01:01:39Z</time>
      </trkpt>
      <trkpt lat="44.19425" lon="4.23613">
        <ele>180</ele>
        <time>2010-01-01T01:01:39Z</time>
      </trkpt>
      <trkpt lat="44.19424" lon="4.23613">
        <ele>180</ele>
        <time>2010-01-01T01:01:40Z</time>
      </trkpt>
      <trkpt lat="44.19421" lon="4.23611">
        <ele>180</ele>
        <time>2010-01-01T01:01:41Z</time>
      </trkpt>
      <trkpt lat="44.19419" lon="4.23611">
        <ele>181</ele>
        <time>2010-01-01T01:01:42Z</time>
      </trkpt>
      <trkpt lat="44.19391" lon="4.23592">
        <ele>177</ele>
        <time>2010-01-01T01:01:54Z</time>
      </trkpt>
      <trkpt lat="44.19381" lon="4.23587">
        <ele>176</ele>
        <time>2010-01-01T01:01:58Z</time>
      </trkpt>
      <trkpt lat="44.19381" lon="4.23586">
        <ele>175</ele>
        <time>2010-01-01T01:01:59Z</time>
      </trkpt>
      <trkpt lat="44.19376" lon="4.23576">
        <ele>175</ele>
        <time>2010-01-01T01:02:02Z</time>
      </trkpt>
      <trkpt lat="44.19377" lon="4.23575">
        <ele>175</ele>
        <time>2010-01-01T01:02:02Z</time>
      </trkpt>
      <trkpt lat="44.19376" lon="4.23568">
        <ele>175</ele>
        <time>2010-01-01T01:02:04Z</time>
      </trkpt>
      <trkpt lat="44.19373" lon="4.2356">
        <ele>175</ele>
        <time>2010-01-01T01:02:07Z</time>
      </trkpt>
      <trkpt lat="44.19371" lon="4.23554">
        <ele>174</ele>
        <time>2010-01-01T01:02:09Z</time>
      </trkpt>
      <trkpt lat="44.19371" lon="4.23553">
        <ele>174</ele>
        <time>2010-01-01T01:02:09Z</time>
      </trkpt>
      <trkpt lat="44.19365" lon="4.23542">
        <ele>174</ele>
        <time>2010-01-01T01:02:13Z</time>
      </trkpt>
      <trkpt lat="44.19365" lon="4.2354">
        <ele>174</ele>
        <time>2010-01-01T01:02:13Z</time>
      </trkpt>
      <trkpt lat="44.19365" lon="4.23539">
        <ele>174</ele>
        <time>2010-01-01T01:02:14Z</time>
      </trkpt>
      <trkpt lat="44.19362" lon="4.23525">
        <ele>173</ele>
        <time>2010-01-01T01:02:18Z</time>
      </trkpt>
      <trkpt lat="44.19358" lon="4.23514">
        <ele>172</ele>
        <time>2010-01-01T01:02:21Z</time>
      </trkpt>
      <trkpt lat="44.19358" lon="4.23514">
        <ele>172</ele>
        <time>2010-01-01T01:02:22Z</time>
      </trkpt>
      <trkpt lat="44.19358" lon="4.23513">
        <ele>172</ele>
        <time>2010-01-01T01:02:22Z</time>
      </trkpt>
      <trkpt lat="44.19354" lon="4.235">
        <ele>171</ele>
        <time>2010-01-01T01:02:26Z</time>
      </trkpt>
      <trkpt lat="44.19354" lon="4.23499">
        <ele>168</ele>
        <time>2010-01-01T01:02:26Z</time>
      </trkpt>
      <trkpt lat="44.19353" lon="4.23489">
        <ele>168</ele>
        <time>2010-01-01T01:02:29Z</time>
      </trkpt>
      <trkpt lat="44.19354" lon="4.2348">
        <ele>167</ele>
        <time>2010-01-01T01:02:32Z</time>
      </trkpt>
      <trkpt lat="44.19352" lon="4.2348">
        <ele>167</ele>
        <time>2010-01-01T01:02:33Z</time>
      </trkpt>
      <trkpt lat="44.19351" lon="4.23481">
        <ele>167</ele>
        <time>2010-01-01T01:02:33Z</time>
      </trkpt>
      <trkpt lat="44.19349" lon="4.23486">
        <ele>168</ele>
        <time>2010-01-01T01:02:35Z</time>
      </trkpt>
      <trkpt lat="44.19344" lon="4.23493">
        <ele>168</ele>
        <time>2010-01-01T01:02:38Z</time>
      </trkpt>
      <trkpt lat="44.19341" lon="4.23495">
        <ele>168</ele>
        <time>2010-01-01T01:02:39Z</time>
      </trkpt>
      <trkpt lat="44.19341" lon="4.23483">
        <ele>167</ele>
        <time>2010-01-01T01:02:42Z</time>
      </trkpt>
      <trkpt lat="44.19341" lon="4.23483">
        <ele>167</ele>
        <time>2010-01-01T01:02:42Z</time>
      </trkpt>
      <trkpt lat="44.19343" lon="4.23472">
        <ele>167</ele>
        <time>2010-01-01T01:02:45Z</time>
      </trkpt>
      <trkpt lat="44.19343" lon="4.23472">
        <ele>167</ele>
        <time>2010-01-01T01:02:45Z</time>
      </trkpt>
      <trkpt lat="44.19343" lon="4.23465">
        <ele>166</ele>
        <time>2010-01-01T01:02:48Z</time>
      </trkpt>
      <trkpt lat="44.19337" lon="4.23465">
        <ele>166</ele>
        <time>2010-01-01T01:02:50Z</time>
      </trkpt>
      <trkpt lat="44.19336" lon="4.23466">
        <ele>166</ele>
        <time>2010-01-01T01:02:50Z</time>
      </trkpt>
      <trkpt lat="44.19331" lon="4.23471">
        <ele>159</ele>
        <time>2010-01-01T01:02:53Z</time>
      </trkpt>
      <trkpt lat="44.19327" lon="4.23473">
        <ele>159</ele>
        <time>2010-01-01T01:02:55Z</time>
      </trkpt>
      <trkpt lat="44.1932" lon="4.23483">
        <ele>160</ele>
        <time>2010-01-01T01:02:59Z</time>
      </trkpt>
      <trkpt lat="44.19316" lon="4.23481">
        <ele>159</ele>
        <time>2010-01-01T01:03:00Z</time>
      </trkpt>
      <trkpt lat="44.19319" lon="4.2346">
        <ele>157</ele>
        <time>2010-01-01T01:03:06Z</time>
      </trkpt>
      <trkpt lat="44.19319" lon="4.23458">
        <ele>157</ele>
        <time>2010-01-01T01:03:07Z</time>
      </trkpt>
      <trkpt lat="44.19326" lon="4.23448">
        <ele>157</ele>
        <time>2010-01-01T01:03:11Z</time>
      </trkpt>
      <trkpt lat="44.19326" lon="4.23446">
        <ele>157</ele>
        <time>2010-01-01T01:03:11Z</time>
      </trkpt>
      <trkpt lat="44.19327" lon="4.23439">
        <ele>157</ele>
        <time>2010-01-01T01:03:13Z</time>
      </trkpt>
      <trkpt lat="44.19326" lon="4.23439">
        <ele>157</ele>
        <time>2010-01-01T01:03:14Z</time>
      </trkpt>
      <trkpt lat="44.19326" lon="4.23438">
        <ele>157</ele>
        <time>2010-01-01T01:03:14Z</time>
      </trkpt>
      <trkpt lat="44.19324" lon="4.23432">
        <ele>157</ele>
        <time>2010-01-01T01:03:16Z</time>
      </trkpt>
      <trkpt lat="44.19324" lon="4.2343">
        <ele>157</ele>
        <time>2010-01-01T01:03:17Z</time>
      </trkpt>
      <trkpt lat="44.19326" lon="4.2342">
        <ele>158</ele>
        <time>2010-01-01T01:03:19Z</time>
      </trkpt>
      <trkpt lat="44.19331" lon="4.23403">
        <ele>156</ele>
        <time>2010-01-01T01:03:25Z</time>
      </trkpt>
      <trkpt lat="44.19332" lon="4.23396">
        <ele>154</ele>
        <time>2010-01-01T01:03:27Z</time>
      </trkpt>
      <trkpt lat="44.19331" lon="4.23391">
        <ele>154</ele>
        <time>2010-01-01T01:03:28Z</time>
      </trkpt>
      <trkpt lat="44.19324" lon="4.23392">
        <ele>154</ele>
        <time>2010-01-01T01:03:31Z</time>
      </trkpt>
      <trkpt lat="44.19317" lon="4.234">
        <ele>154</ele>
        <time>2010-01-01T01:03:35Z</time>
      </trkpt>
      <trkpt lat="44.19302" lon="4.23412">
        <ele>152</ele>
        <time>2010-01-01T01:03:41Z</time>
      </trkpt>
      <trkpt lat="44.19301" lon="4.23413">
        <ele>152</ele>
        <time>2010-01-01T01:03:42Z</time>
      </trkpt>
      <trkpt lat="44.19293" lon="4.23425">
        <ele>154</ele>
        <time>2010-01-01T01:03:47Z</time>
      </trkpt>
      <trkpt lat="44.19292" lon="4.23435">
        <ele>154</ele>
        <time>2010-01-01T01:03:50Z</time>
      </trkpt>
      <trkpt lat="44.19292" lon="4.23436">
        <ele>154</ele>
        <time>2010-01-01T01:03:50Z</time>
      </trkpt>
      <trkpt lat="44.19289" lon="4.23456">
        <ele>154</ele>
        <time>2010-01-01T01:03:56Z</time>
      </trkpt>
      <trkpt lat="44.19287" lon="4.23468">
        <ele>155</ele>
        <time>2010-01-01T01:03:59Z</time>
      </trkpt>
      <trkpt lat="44.19285" lon="4.23477">
        <ele>154</ele>
        <time>2010-01-01T01:04:02Z</time>
      </trkpt>
      <trkpt lat="44.19282" lon="4.23491">
        <ele>154</ele>
        <time>2010-01-01T01:04:06Z</time>
      </trkpt>
      <trkpt lat="44.19279" lon="4.23507">
        <ele>155</ele>
        <time>2010-01-01T01:04:11Z</time>
      </trkpt>
      <trkpt lat="44.19274" lon="4.23517">
        <ele>155</ele>
        <time>2010-01-01T01:04:14Z</time>
      </trkpt>
      <trkpt lat="44.19268" lon="4.23525">
        <ele>154</ele>
        <time>2010-01-01T01:04:18Z</time>
      </trkpt>
      <trkpt lat="44.19262" lon="4.23529">
        <ele>154</ele>
        <time>2010-01-01T01:04:20Z</time>
      </trkpt>
      <trkpt lat="44.1926" lon="4.23528">
        <ele>154</ele>
        <time>2010-01-01T01:04:21Z</time>
      </trkpt>
      <trkpt lat="44.19255" lon="4.23509">
        <ele>151</ele>
        <time>2010-01-01T01:04:27Z</time>
      </trkpt>
      <trkpt lat="44.19257" lon="4.23497">
        <ele>149</ele>
        <time>2010-01-01T01:04:30Z</time>
      </trkpt>
      <trkpt lat="44.19257" lon="4.23497">
        <ele>149</ele>
        <time>2010-01-01T01:04:30Z</time>
      </trkpt>
      <trkpt lat="44.19259" lon="4.23488">
        <ele>150</ele>
        <time>2010-01-01T01:04:33Z</time>
      </trkpt>
      <trkpt lat="44.19262" lon="4.23472">
        <ele>152</ele>
        <time>2010-01-01T01:04:38Z</time>
      </trkpt>
      <trkpt lat="44.19262" lon="4.23471">
        <ele>152</ele>
        <time>2010-01-01T01:04:38Z</time>
      </trkpt>
      <trkpt lat="44.19268" lon="4.23453">
        <ele>152</ele>
        <time>2010-01-01T01:04:44Z</time>
      </trkpt>
      <trkpt lat="44.19268" lon="4.23436">
        <ele>151</ele>
        <time>2010-01-01T01:04:49Z</time>
      </trkpt>
      <trkpt lat="44.19272" lon="4.23413">
        <ele>149</ele>
        <time>2010-01-01T01:04:55Z</time>
      </trkpt>
      <trkpt lat="44.19271" lon="4.23407">
        <ele>149</ele>
        <time>2010-01-01T01:04:57Z</time>
      </trkpt>
      <trkpt lat="44.19269" lon="4.23401">
        <ele>149</ele>
        <time>2010-01-01T01:04:59Z</time>
      </trkpt>
      <trkpt lat="44.19268" lon="4.23402">
        <ele>149</ele>
        <time>2010-01-01T01:04:59Z</time>
      </trkpt>
      <trkpt lat="44.19266" lon="4.23389">
        <ele>149</ele>
        <time>2010-01-01T01:05:03Z</time>
      </trkpt>
      <trkpt lat="44.19265" lon="4.2338">
        <ele>149</ele>
        <time>2010-01-01T01:05:06Z</time>
      </trkpt>
      <trkpt lat="44.19219" lon="4.23332">
        <ele>150</ele>
        <time>2010-01-01T01:05:29Z</time>
      </trkpt>
      <trkpt lat="44.19209" lon="4.23335">
        <ele>146</ele>
        <time>2010-01-01T01:05:33Z</time>
      </trkpt>
      <trkpt lat="44.19193" lon="4.23339">
        <ele>147</ele>
        <time>2010-01-01T01:05:39Z</time>
      </trkpt>
      <trkpt lat="44.19182" lon="4.23348">
        <ele>147</ele>
        <time>2010-01-01T01:05:45Z</time>
      </trkpt>
      <trkpt lat="44.19173" lon="4.23349">
        <ele>147</ele>
        <time>2010-01-01T01:05:48Z</time>
      </trkpt>
      <trkpt lat="44.19172" lon="4.2335">
        <ele>147</ele>
        <time>2010-01-01T01:05:48Z</time>
      </trkpt>
      <trkpt lat="44.19159" lon="4.23357">
        <ele>149</ele>
        <time>2010-01-01T01:05:54Z</time>
      </trkpt>
      <trkpt lat="44.19148" lon="4.23361">
        <ele>148</ele>
        <time>2010-01-01T01:05:59Z</time>
      </trkpt>
      <trkpt lat="44.1914" lon="4.23363">
        <ele>149</ele>
        <time>2010-01-01T01:06:02Z</time>
      </trkpt>
      <trkpt lat="44.19135" lon="4.23367">
        <ele>148</ele>
        <time>2010-01-01T01:06:04Z</time>
      </trkpt>
      <trkpt lat="44.19134" lon="4.23367">
        <ele>148</ele>
        <time>2010-01-01T01:06:05Z</time>
      </trkpt>
      <trkpt lat="44.19128" lon="4.23369">
        <ele>149</ele>
        <time>2010-01-01T01:06:07Z</time>
      </trkpt>
      <trkpt lat="44.19117" lon="4.23377">
        <ele>148</ele>
        <time>2010-01-01T01:06:12Z</time>
      </trkpt>
      <trkpt lat="44.19102" lon="4.23389">
        <ele>148</ele>
        <time>2010-01-01T01:06:19Z</time>
      </trkpt>
      <trkpt lat="44.19093" lon="4.2339">
        <ele>148</ele>
        <time>2010-01-01T01:06:22Z</time>
      </trkpt>
      <trkpt lat="44.1908" lon="4.23386">
        <ele>149</ele>
        <time>2010-01-01T01:06:28Z</time>
      </trkpt>
      <trkpt lat="44.19068" lon="4.23383">
        <ele>149</ele>
        <time>2010-01-01T01:06:33Z</time>
      </trkpt>
      <trkpt lat="44.19054" lon="4.23376">
        <ele>149</ele>
        <time>2010-01-01T01:06:38Z</time>
      </trkpt>
      <trkpt lat="44.19053" lon="4.23375">
        <ele>150</ele>
        <time>2010-01-01T01:06:39Z</time>
      </trkpt>
      <trkpt lat="44.19037" lon="4.23371">
        <ele>150</ele>
        <time>2010-01-01T01:06:46Z</time>
      </trkpt>
      <trkpt lat="44.1902" lon="4.23367">
        <ele>150</ele>
        <time>2010-01-01T01:06:52Z</time>
      </trkpt>
      <trkpt lat="44.19019" lon="4.23367">
        <ele>150</ele>
        <time>2010-01-01T01:06:53Z</time>
      </trkpt>
      <trkpt lat="44.1901" lon="4.23363">
        <ele>150</ele>
        <time>2010-01-01T01:06:57Z</time>
      </trkpt>
      <trkpt lat="44.19009" lon="4.23363">
        <ele>150</ele>
        <time>2010-01-01T01:06:57Z</time>
      </trkpt>
      <trkpt lat="44.19" lon="4.23359">
        <ele>151</ele>
        <time>2010-01-01T01:07:01Z</time>
      </trkpt>
      <trkpt lat="44.18995" lon="4.23359">
        <ele>146</ele>
        <time>2010-01-01T01:07:03Z</time>
      </trkpt>
      <trkpt lat="44.18995" lon="4.23359">
        <ele>146</ele>
        <time>2010-01-01T01:07:03Z</time>
      </trkpt>
      <trkpt lat="44.18989" lon="4.23361">
        <ele>146</ele>
        <time>2010-01-01T01:07:05Z</time>
      </trkpt>
      <trkpt lat="44.18987" lon="4.23364">
        <ele>145</ele>
        <time>2010-01-01T01:07:06Z</time>
      </trkpt>
      <trkpt lat="44.18989" lon="4.23372">
        <ele>144</ele>
        <time>2010-01-01T01:07:09Z</time>
      </trkpt>
      <trkpt lat="44.18991" lon="4.23382">
        <ele>142</ele>
        <time>2010-01-01T01:07:12Z</time>
      </trkpt>
      <trkpt lat="44.18994" lon="4.23388">
        <ele>142</ele>
        <time>2010-01-01T01:07:14Z</time>
      </trkpt>
      <trkpt lat="44.18996" lon="4.23397">
        <ele>141</ele>
        <time>2010-01-01T01:07:16Z</time>
      </trkpt>
      <trkpt lat="44.18996" lon="4.23398">
        <ele>141</ele>
        <time>2010-01-01T01:07:17Z</time>
      </trkpt>
      <trkpt lat="44.18995" lon="4.23405">
        <ele>140</ele>
        <time>2010-01-01T01:07:19Z</time>
      </trkpt>
      <trkpt lat="44.18995" lon="4.2341">
        <ele>139</ele>
        <time>2010-01-01T01:07:20Z</time>
      </trkpt>
      <trkpt lat="44.18992" lon="4.2341">
        <ele>139</ele>
        <time>2010-01-01T01:07:22Z</time>
      </trkpt>
      <trkpt lat="44.18977" lon="4.23405">
        <ele>140</ele>
        <time>2010-01-01T01:07:28Z</time>
      </trkpt>
      <trkpt lat="44.18952" lon="4.23381">
        <ele>141</ele>
        <time>2010-01-01T01:07:40Z</time>
      </trkpt>
      <trkpt lat="44.1893" lon="4.23366">
        <ele>141</ele>
        <time>2010-01-01T01:07:50Z</time>
      </trkpt>
      <trkpt lat="44.18916" lon="4.2335">
        <ele>137</ele>
        <time>2010-01-01T01:07:57Z</time>
      </trkpt>
      <trkpt lat="44.18905" lon="4.2333">
        <ele>142</ele>
        <time>2010-01-01T01:08:04Z</time>
      </trkpt>
      <trkpt lat="44.18898" lon="4.23313">
        <ele>143</ele>
        <time>2010-01-01T01:08:10Z</time>
      </trkpt>
      <trkpt lat="44.18898" lon="4.23312">
        <ele>143</ele>
        <time>2010-01-01T01:08:10Z</time>
      </trkpt>
      <trkpt lat="44.18892" lon="4.23294">
        <ele>144</ele>
        <time>2010-01-01T01:08:16Z</time>
      </trkpt>
      <trkpt lat="44.18891" lon="4.23292">
        <ele>144</ele>
        <time>2010-01-01T01:08:17Z</time>
      </trkpt>
      <trkpt lat="44.18885" lon="4.23274">
        <ele>146</ele>
        <time>2010-01-01T01:08:22Z</time>
      </trkpt>
      <trkpt lat="44.1888" lon="4.23262">
        <ele>146</ele>
        <time>2010-01-01T01:08:26Z</time>
      </trkpt>
      <trkpt lat="44.18879" lon="4.23261">
        <ele>146</ele>
        <time>2010-01-01T01:08:27Z</time>
      </trkpt>
      <trkpt lat="44.18868" lon="4.23248">
        <ele>151</ele>
        <time>2010-01-01T01:08:33Z</time>
      </trkpt>
      <trkpt lat="44.18861" lon="4.23247">
        <ele>150</ele>
        <time>2010-01-01T01:08:36Z</time>
      </trkpt>
      <trkpt lat="44.18853" lon="4.23238">
        <ele>149</ele>
        <time>2010-01-01T01:08:39Z</time>
      </trkpt>
      <trkpt lat="44.18845" lon="4.23232">
        <ele>148</ele>
        <time>2010-01-01T01:08:43Z</time>
      </trkpt>
      <trkpt lat="44.18838" lon="4.23227">
        <ele>148</ele>
        <time>2010-01-01T01:08:46Z</time>
      </trkpt>
      <trkpt lat="44.18828" lon="4.23217">
        <ele>140</ele>
        <time>2010-01-01T01:08:51Z</time>
      </trkpt>
      <trkpt lat="44.18801" lon="4.23205">
        <ele>140</ele>
        <time>2010-01-01T01:09:02Z</time>
      </trkpt>
      <trkpt lat="44.18786" lon="4.23189">
        <ele>139</ele>
        <time>2010-01-01T01:09:10Z</time>
      </trkpt>
      <trkpt lat="44.1877" lon="4.23178">
        <ele>139</ele>
        <time>2010-01-01T01:09:17Z</time>
      </trkpt>
      <trkpt lat="44.18749" lon="4.2317">
        <ele>137</ele>
        <time>2010-01-01T01:09:26Z</time>
      </trkpt>
      <trkpt lat="44.18721" lon="4.23158">
        <ele>137</ele>
        <time>2010-01-01T01:09:38Z</time>
      </trkpt>
      <trkpt lat="44.18698" lon="4.23142">
        <ele>137</ele>
        <time>2010-01-01T01:09:48Z</time>
      </trkpt>
      <trkpt lat="44.18682" lon="4.23117">
        <ele>137</ele>
        <time>2010-01-01T01:09:58Z</time>
      </trkpt>
      <trkpt lat="44.18665" lon="4.23092">
        <ele>135</ele>
        <time>2010-01-01T01:10:08Z</time>
      </trkpt>
      <trkpt lat="44.18648" lon="4.23073">
        <ele>136</ele>
        <time>2010-01-01T01:10:16Z</time>
      </trkpt>
      <trkpt lat="44.18633" lon="4.23045">
        <ele>137</ele>
        <time>2010-01-01T01:10:26Z</time>
      </trkpt>
      <trkpt lat="44.1862" lon="4.23022">
        <ele>137</ele>
        <time>2010-01-01T01:10:35Z</time>
      </trkpt>
      <trkpt lat="44.18627" lon="4.23005">
        <ele>137</ele>
        <time>2010-01-01T01:10:40Z</time>
      </trkpt>
      <trkpt lat="44.18641" lon="4.2299">
        <ele>138</ele>
        <time>2010-01-01T01:10:47Z</time>
      </trkpt>
      <trkpt lat="44.18653" lon="4.22974">
        <ele>138</ele>
        <time>2010-01-01T01:10:54Z</time>
      </trkpt>
      <trkpt lat="44.18669" lon="4.22965">
        <ele>140</ele>
        <time>2010-01-01T01:11:01Z</time>
      </trkpt>
      <trkpt lat="44.18686" lon="4.22971">
        <ele>140</ele>
        <time>2010-01-01T01:11:08Z</time>
      </trkpt>
      <trkpt lat="44.18705" lon="4.22971">
        <ele>141</ele>
        <time>2010-01-01T01:11:15Z</time>
      </trkpt>
      <trkpt lat="44.1872" lon="4.22964">
        <ele>141</ele>
        <time>2010-01-01T01:11:22Z</time>
      </trkpt>
      <trkpt lat="44.18732" lon="4.22947">
        <ele>141</ele>
        <time>2010-01-01T01:11:29Z</time>
      </trkpt>
      <trkpt lat="44.18732" lon="4.22926">
        <ele>142</ele>
        <time>2010-01-01T01:11:35Z</time>
      </trkpt>
    </trkseg>
  </trk>
</gpx>